GFSFLT2_850_thetae_000.txt.gz
Theta_e
322 323 323 322 322 321 321 322 325 328 327 329 330 332 336 340 342 343 344 347 348 348 349 350 350 350 343 337 330 328 328 326
321 324 322 322 320 324 318 326 329 326 327 330 330 332 332 336 340 342 343 346 347 348 349 350 349 349 348 339 327 326 327 326
320 321 322 323 322 319 319 320 324 325 325 323 327 330 332 334 338 340 341 344 346 347 347 349 349 349 349 344 337 327 326 327
318 320 321 322 321 321 325 322 320 321 324 324 326 327 332 333 336 337 338 341 343 344 346 347 348 348 348 348 342 337 330 333
319 318 321 322 321 318 317 318 322 325 325 325 326 330 334 334 336 337 337 338 341 343 344 344 346 347 348 348 347 342 340 340
322 320 320 324 324 321 320 321 322 324 325 327 330 332 333 336 336 337 337 338 339 341 342 342 343 344 346 347 347 347 342 341
322 318 322 323 324 323 323 322 325 326 324 326 329 330 331 338 337 336 336 337 339 339 340 341 342 343 344 345 347 347 346 342
322 319 320 322 322 325 324 324 323 324 324 323 327 330 331 335 338 338 338 338 338 338 339 339 339 339 341 343 344 345 345 345
321 319 319 321 322 322 324 323 324 325 325 323 328 330 331 333 337 339 340 339 339 339 338 337 336 337 339 340 342 343 345 346
322 321 323 322 326 323 326 332 331 330 326 325 328 331 332 333 334 337 338 338 339 337 336 337 338 339 339 340 340 341 342 346
320 319 323 333 332 332 332 333 330 332 331 330 329 331 331 331 333 333 334 335 335 338 335 329 328 331 334 338 342 344 344 346
322 324 331 330 330 331 330 333 329 329 329 328 329 329 328 330 331 334 336 336 332 329 329 329 329 329 330 336 342 343 346 348
330 331 330 331 329 331 333 330 328 328 329 330 329 330 333 334 333 333 332 332 333 333 333 332 331 332 333 333 335 340 345 350
332 334 336 329 331 331 331 329 331 331 330 329 331 333 330 328 327 327 328 328 328 328 328 327 327 333 336 336 341 338 347 349
332 332 328 327 327 329 330 328 327 326 327 329 330 330 330 330 330 330 330 330 330 329 328 327 327 332 328 340 338 344 348 346
332 329 328 323 325 327 327 327 328 331 331 331 331 331 333 333 330 329 330 331 331 331 332 336 336 342 342 344 345 346 342 341
330 327 324 321 322 322 322 324 324 326 327 327 329 330 330 331 333 331 333 332 331 332 331 338 340 344 344 346 344 340 338 338
329 326 327 322 321 322 322 322 323 323 323 323 324 325 326 329 330 335 335 332 334 336 335 334 333 338 342 341 338 336 333 331
322 321 321 320 319 319 320 320 320 321 320 320 321 322 323 325 325 326 328 334 337 335 334 336 338 340 340 339 337 335 331 328

GFSFLT2_850_thetae_003.txt.gz
Theta_e
323 326 328 329 331 331 333 329 333 335 339 335 337 338 338 340 343 345 345 345 346 346 345 346 347 347 348 350 348 340 336 338
324 324 326 328 329 330 330 337 336 334 335 333 339 340 341 341 342 343 345 346 347 347 345 346 347 348 347 347 347 334 333 334
323 324 325 326 328 329 331 331 335 335 334 336 342 345 342 342 341 343 345 346 347 348 346 345 346 348 348 348 347 343 332 330
324 324 324 326 328 330 332 334 331 332 332 333 335 338 339 338 339 340 345 344 347 348 348 346 347 347 348 350 349 347 337 329
327 326 324 325 326 328 330 331 337 332 332 334 333 334 334 337 340 339 342 345 346 348 348 346 346 347 348 348 348 348 348 341
328 327 326 325 326 327 328 331 331 332 331 334 336 337 337 337 338 340 339 342 343 346 342 342 342 344 345 347 349 349 348 348
331 329 326 325 324 327 329 331 332 330 333 334 340 342 340 338 342 339 340 342 341 339 338 339 341 342 343 344 346 347 348 348
327 328 327 326 325 326 328 328 330 331 333 333 335 336 338 338 341 340 338 337 337 337 338 338 339 340 341 343 344 345 346 348
331 326 325 327 327 327 329 330 330 332 333 336 333 335 337 338 340 341 338 337 337 338 338 339 339 340 340 340 341 342 343 345
334 329 330 326 327 327 327 328 329 330 332 333 335 335 334 333 336 340 341 340 338 337 337 337 337 338 338 338 339 339 341 343
332 331 331 330 332 328 326 328 335 335 336 334 331 333 335 330 332 332 333 335 337 338 337 334 330 329 330 331 332 336 340 343
335 335 334 337 335 333 335 333 334 335 336 336 333 336 339 331 332 332 333 335 336 330 327 327 328 328 329 328 330 333 338 342
339 338 334 336 334 333 336 337 333 333 334 334 338 337 334 335 336 333 336 333 329 329 329 331 332 332 331 331 332 335 338 342
340 341 338 331 335 338 336 332 333 333 334 334 334 335 336 335 331 331 331 331 331 333 332 331 329 330 330 330 333 336 341 344
337 339 331 328 331 333 333 332 333 334 334 334 335 336 336 335 332 332 331 332 333 333 332 332 330 329 329 332 337 340 340 344
336 335 329 328 329 330 332 332 334 335 332 330 334 333 336 333 331 330 331 331 333 331 331 333 334 333 335 340 341 342 344 343
336 332 327 326 327 327 328 328 328 329 331 331 330 331 332 336 337 334 332 331 331 331 330 336 337 342 344 344 344 342 336 336
334 329 329 327 325 325 323 323 324 325 325 326 327 328 327 328 329 331 335 337 335 335 333 334 336 340 343 343 341 339 339 337
326 325 322 321 320 320 320 320 320 321 321 321 322 324 324 325 326 326 326 328 333 337 334 334 336 339 341 340 338 338 334 332

GFSFLT2_850_thetae_006.txt.gz
Theta_e
325 326 327 331 334 334 336 337 337 336 338 337 337 338 338 338 341 343 346 346 343 345 346 348 350 351 350 350 348 347 348 346
327 326 327 329 332 334 336 342 340 337 337 339 338 337 336 338 341 343 345 346 345 344 345 347 348 350 350 349 348 349 350 344
327 326 326 328 330 333 335 335 337 339 338 336 337 337 337 336 340 341 344 346 346 345 345 347 347 348 350 353 353 350 350 341
326 326 326 328 329 333 335 339 336 337 335 335 336 336 335 335 334 335 342 345 347 347 347 347 348 347 348 350 352 353 343 339
331 326 326 326 328 330 332 335 342 337 336 334 335 335 334 339 339 339 344 346 348 348 349 350 349 349 350 352 352 353 354 354
331 331 328 327 326 327 329 335 335 335 336 335 334 335 334 335 338 340 345 346 348 348 350 351 351 351 352 352 353 354 354 356
330 329 329 328 327 326 327 329 334 334 334 335 335 335 334 333 334 340 346 346 348 349 351 352 352 353 355 355 354 354 356 356
333 331 330 329 329 327 327 327 328 330 332 333 333 332 332 332 333 339 345 346 348 351 352 355 355 356 356 356 355 356 357 357
336 333 332 332 331 330 328 327 328 329 330 331 331 333 334 334 337 339 344 345 347 349 351 354 355 356 356 355 355 355 356 357
337 336 336 331 331 331 329 327 328 330 331 331 332 333 335 337 335 339 344 345 346 347 350 352 352 352 352 348 341 349 349 352
336 336 335 334 333 330 329 329 328 330 332 332 332 335 340 339 338 341 345 347 347 347 349 348 348 346 340 340 339 342 344 347
336 336 337 338 338 336 338 337 330 330 331 331 334 338 334 340 337 338 343 344 345 344 345 345 342 335 333 341 336 334 333 336
335 337 335 339 336 337 341 335 331 331 333 334 338 340 341 339 339 341 343 345 345 344 342 334 332 338 344 342 336 332 333 335
337 339 338 334 337 341 341 339 339 338 338 338 340 341 343 343 344 345 344 342 341 342 341 343 340 336 331 332 330 332 336 340
336 335 336 333 334 336 337 339 339 339 339 340 340 341 342 342 341 341 340 340 341 344 346 344 338 341 335 331 331 333 335 340
338 336 334 333 333 334 336 337 337 337 337 338 338 338 339 340 341 343 344 343 343 344 340 331 330 330 329 331 334 336 337 341
336 335 332 331 332 332 332 335 335 336 336 338 341 342 343 344 343 343 344 343 342 342 344 332 332 332 334 337 341 342 344 344
335 333 332 326 326 327 328 329 331 331 331 333 334 336 341 344 344 346 345 345 346 346 343 341 340 342 343 344 345 349 347 344
333 330 324 323 322 323 323 324 325 326 326 327 327 328 330 331 333 335 333 338 347 346 347 343 344 346 344 344 345 343 343 338

GFSFLT2_850_thetae_009.txt.gz
Theta_e
329 328 327 329 333 334 336 338 339 339 339 340 341 341 339 338 337 337 342 346 346 344 346 348 349 352 353 355 355 355 359 356
329 328 327 327 330 333 338 343 341 338 339 340 341 340 338 339 337 337 339 345 346 345 345 346 349 351 353 355 356 354 357 358
331 329 328 327 328 332 334 336 339 340 340 338 341 340 339 339 336 337 338 344 346 346 345 346 347 349 352 353 355 354 356 357
331 331 329 328 328 329 336 340 336 340 338 338 338 338 338 337 336 336 337 341 345 346 346 346 346 347 348 350 352 355 356 356
334 331 330 329 329 329 330 335 343 340 338 338 338 337 337 337 336 335 337 339 344 346 346 347 347 347 346 348 348 352 355 356
334 334 331 329 328 328 329 332 334 335 337 338 338 337 336 335 335 337 338 344 343 346 347 348 348 348 346 346 346 349 353 354
332 332 332 331 328 327 328 330 333 333 335 337 340 338 337 335 334 334 335 344 346 348 349 350 350 350 349 347 347 350 352 354
332 331 330 330 331 329 328 328 329 330 332 334 335 336 336 334 334 334 334 336 347 349 350 353 353 354 353 351 351 352 354 355
337 334 334 333 331 331 331 330 329 329 330 331 334 337 338 335 334 334 334 334 345 348 351 353 355 356 356 355 354 355 355 358
335 337 337 334 333 332 331 331 331 330 330 330 335 333 333 333 333 333 334 334 340 347 351 355 355 355 357 359 357 358 358 358
338 339 339 337 338 339 339 335 332 333 331 330 329 330 333 331 331 333 334 335 342 348 351 355 356 356 358 359 360 360 361 360
338 338 339 335 339 338 337 337 333 332 331 330 330 333 336 332 336 339 339 336 346 349 351 356 356 358 358 358 358 358 359 359
335 338 336 339 338 337 338 338 344 341 339 336 331 334 335 337 336 340 339 346 350 350 355 354 353 354 355 354 354 353 353 352
334 335 336 338 338 339 344 341 341 342 340 340 330 331 342 343 342 342 344 347 349 350 352 352 351 351 350 350 348 350 351 355
333 336 342 339 338 338 338 340 341 341 340 339 339 343 345 345 348 348 349 349 349 350 348 347 348 350 351 352 352 354 355 356
340 341 340 338 337 338 339 340 340 341 342 342 343 345 346 346 345 344 344 346 347 348 350 352 352 353 359 356 356 356 350 343
342 340 338 336 336 337 339 339 340 341 344 343 344 345 345 346 345 345 345 345 346 349 350 351 353 354 352 353 354 351 350 352
342 338 336 333 332 334 334 334 336 338 338 343 345 345 346 345 345 345 345 346 347 348 349 351 352 351 350 349 351 350 350 349
336 333 327 325 325 326 327 329 330 331 331 332 332 332 334 336 339 342 344 345 345 346 348 350 351 350 346 353 351 348 347 346

GFSFLT2_850_thetae_012.txt.gz
Theta_e
329 330 328 329 329 331 334 336 338 339 339 338 342 345 343 342 341 343 347 348 346 348 348 351 352 351 354 358 357 357 356 354
331 330 330 328 330 329 332 338 341 339 342 343 343 347 344 344 341 339 337 347 348 346 349 350 352 352 354 356 357 357 357 354
332 331 329 328 328 329 331 334 338 342 341 342 347 349 347 345 341 338 337 341 347 347 347 350 352 353 354 356 358 359 359 355
331 332 331 329 329 328 330 336 335 337 340 339 344 342 344 342 339 338 337 339 343 347 347 348 350 352 354 356 358 360 360 356
330 331 333 330 329 329 328 330 334 337 338 338 340 339 343 341 339 339 338 338 343 345 348 347 348 350 353 355 357 361 361 356
333 333 332 333 331 330 329 329 332 333 338 338 342 343 341 341 338 338 337 336 344 344 349 347 348 349 351 354 356 358 360 358
330 330 332 333 331 331 331 332 333 333 334 338 340 343 340 339 337 336 338 342 341 344 345 348 348 349 349 350 352 353 356 358
332 332 331 332 333 331 330 331 331 332 332 334 335 336 339 338 336 338 336 337 344 341 346 349 349 349 349 348 350 350 351 355
334 331 332 333 333 333 332 329 330 330 333 334 335 337 341 341 338 340 338 335 340 347 346 351 353 350 350 348 349 348 349 353
334 335 336 333 332 332 331 332 332 333 333 334 334 332 332 332 335 336 337 335 334 339 348 349 355 355 353 352 349 349 349 352
337 335 335 334 335 336 334 333 334 334 335 333 332 331 332 330 331 332 331 339 335 333 346 348 353 355 357 356 352 352 353 356
336 337 340 339 336 338 337 339 339 341 338 336 336 334 334 330 331 331 331 333 334 335 345 349 353 355 357 358 358 354 357 357
335 334 334 337 338 335 338 340 343 342 342 341 341 342 340 336 335 337 331 331 336 347 350 350 354 358 358 360 362 360 361 363
338 340 342 338 337 339 344 341 340 339 339 339 340 339 338 340 337 342 341 341 342 349 352 356 357 360 361 361 362 363 363 362
332 334 339 341 343 341 340 340 340 339 338 338 337 338 338 342 342 334 343 349 353 358 359 359 359 360 360 360 359 359 358 358
331 336 341 339 338 339 339 341 341 346 348 344 340 341 345 348 349 350 351 351 353 355 356 356 357 357 356 355 356 355 357 356
335 344 341 341 341 341 340 344 346 345 345 348 349 349 350 350 350 351 351 351 352 352 355 356 358 358 356 356 355 354 354 353
345 334 342 338 338 338 338 339 339 339 338 339 342 342 345 347 348 350 351 352 354 355 356 358 358 354 354 353 350 345 348 346
329 327 328 328 328 333 333 332 333 333 334 333 332 333 337 341 346 346 347 349 348 352 352 351 351 351 351 352 351 350 349 349

GFSFLT2_850_thetae_015.txt.gz
Theta_e
328 328 326 324 323 324 323 328 330 332 332 332 341 340 342 342 345 344 343 343 344 344 346 348 349 349 350 353 353 352 353 353
329 327 327 324 325 323 324 325 330 331 332 336 340 342 341 341 341 342 342 343 345 345 346 347 348 348 350 352 353 352 353 354
327 327 326 326 324 322 323 325 327 331 332 332 337 342 342 341 341 342 343 344 346 346 346 346 349 349 350 352 354 354 353 354
325 327 328 326 324 322 324 324 326 326 328 330 331 341 341 341 340 341 341 342 345 347 347 348 350 350 350 351 352 354 354 354
326 325 326 327 326 324 324 321 324 327 329 329 329 335 337 340 341 340 339 345 348 347 349 349 351 351 351 351 351 352 354 354
327 327 327 330 328 327 324 324 324 324 324 325 330 335 334 339 340 338 340 338 344 347 348 350 350 351 352 352 351 351 353 353
327 328 328 327 329 328 326 324 324 324 324 324 327 338 336 338 338 338 337 338 338 348 348 350 350 350 352 353 353 351 352 353
328 329 327 327 329 330 327 327 326 326 327 326 328 334 341 339 338 337 336 336 340 345 348 347 348 349 351 353 353 351 351 351
327 329 330 329 327 328 330 329 328 327 327 326 327 328 332 338 339 336 336 340 343 344 347 347 347 347 349 349 351 351 349 351
327 330 332 331 330 331 331 332 330 328 328 329 328 330 331 332 331 331 336 337 337 337 342 349 347 347 346 348 351 351 350 349
328 328 329 331 330 332 331 331 330 337 335 331 330 330 330 330 330 330 332 336 334 341 339 346 349 349 348 349 350 350 350 348
326 328 329 330 332 337 337 338 343 341 341 340 337 332 327 336 336 331 330 332 331 335 337 338 345 350 351 349 350 349 350 348
329 326 328 331 335 334 336 342 343 341 341 341 340 340 339 336 335 339 334 334 331 331 336 341 345 351 355 353 350 349 350 349
333 333 335 339 337 338 339 343 340 339 338 339 338 337 337 336 333 338 337 340 333 332 333 334 345 350 356 355 354 352 354 353
330 337 340 332 330 337 335 340 342 347 348 343 344 345 340 342 339 337 337 339 345 339 338 341 350 353 356 360 360 357 355 362
337 330 336 335 330 340 347 344 347 348 347 345 345 347 351 349 350 349 346 346 354 359 360 359 357 358 358 360 363 362 362 364
335 331 333 340 341 343 343 338 341 342 344 345 347 349 351 355 355 356 358 359 357 359 360 362 362 362 362 362 362 363 363 362
336 327 329 327 333 337 336 337 335 337 338 339 343 344 348 348 348 346 348 358 357 358 358 359 359 359 359 359 359 358 357 357
330 327 325 324 325 328 329 330 331 329 327 329 336 340 339 339 338 335 335 345 359 359 359 358 357 357 355 353 352 352 350 351

GFSFLT2_850_thetae_018.txt.gz
Theta_e
323 324 324 323 318 319 319 322 324 326 328 328 332 339 341 341 341 341 341 341 342 343 345 345 346 347 347 348 348 349 349 350
323 323 323 321 320 321 315 320 322 323 328 329 330 333 337 341 342 342 341 342 342 341 343 345 346 346 347 347 348 349 349 349
324 322 325 324 322 319 318 317 322 322 325 325 327 329 336 340 343 343 343 343 342 342 342 342 345 347 347 347 349 350 350 350
322 322 324 325 323 318 321 319 319 323 325 329 326 327 335 340 343 343 343 343 343 344 342 344 345 348 347 346 348 349 349 350
320 319 321 323 323 322 314 316 321 323 324 323 323 330 338 338 340 342 343 341 341 341 343 344 345 347 348 347 347 348 350 351
325 324 322 322 324 322 322 322 322 322 322 322 322 327 328 335 341 340 341 341 340 342 343 344 345 347 347 347 347 347 349 351
320 323 324 324 324 324 323 324 323 324 319 319 319 320 324 328 336 341 338 338 338 341 344 345 346 348 348 347 348 347 349 350
323 324 325 325 325 326 325 325 323 321 321 319 321 323 327 332 330 336 338 339 339 340 342 346 346 347 348 349 348 349 350 349
321 323 325 325 326 325 325 325 324 322 321 320 322 324 325 329 333 337 337 336 338 341 345 346 347 347 348 349 349 349 350 350
320 322 327 326 326 326 324 326 325 323 323 322 324 326 327 328 329 331 338 335 338 339 343 345 347 348 346 348 349 350 350 351
321 323 324 329 328 326 325 326 327 325 325 324 326 326 326 327 330 330 331 334 336 341 344 344 347 347 348 349 350 352 352 351
321 324 326 325 329 332 330 333 339 335 335 333 326 325 323 331 332 330 328 328 331 335 336 344 346 347 348 349 350 350 349 348
322 326 321 326 331 332 333 331 340 337 337 334 335 330 337 335 335 333 330 329 329 331 335 339 344 346 343 346 348 346 346 349
331 326 331 332 333 329 329 341 339 338 337 337 337 336 336 337 335 334 338 333 331 329 335 335 335 344 346 346 344 345 349 351
332 331 330 333 331 341 346 346 346 346 345 342 343 350 351 349 343 339 338 339 336 335 331 332 332 334 337 340 346 349 350 352
329 331 331 329 337 341 341 341 342 345 345 346 348 352 352 351 350 350 354 359 357 350 335 334 332 341 336 339 350 350 350 351
332 329 329 328 332 335 337 337 340 342 343 344 346 350 351 350 351 352 355 358 360 362 362 356 340 345 353 353 351 353 353 354
332 326 326 326 330 329 329 330 330 334 338 339 339 338 341 341 337 336 340 345 347 342 355 356 358 360 357 358 355 354 355 356
327 326 325 324 324 326 328 329 329 328 327 331 331 331 333 333 333 334 335 331 332 333 335 340 339 332 363 362 361 358 357 359

GFSFLT2_850_thetae_021.txt.gz
Theta_e
324 322 322 320 320 319 317 319 319 322 324 325 328 331 335 339 340 340 341 341 342 343 343 344 346 346 346 347 347 347 347 347
322 322 321 322 318 320 311 320 322 319 323 324 327 329 332 337 338 339 341 341 342 342 343 343 344 344 345 345 346 346 346 347
319 319 322 319 321 317 315 315 321 320 321 321 326 327 330 334 340 340 339 340 341 342 342 342 343 344 344 345 346 346 346 347
319 319 321 320 322 317 320 318 314 320 321 324 324 324 325 330 335 338 341 340 340 341 342 342 343 344 344 344 344 345 346 346
317 318 319 320 319 321 317 316 323 320 320 319 322 323 329 330 332 335 338 341 340 340 341 341 341 343 344 345 344 344 345 347
318 318 319 320 321 321 321 321 323 322 321 321 322 321 323 334 335 335 340 342 341 341 341 341 342 342 344 344 344 344 345 347
316 317 319 319 320 322 320 322 323 324 318 319 319 319 320 326 333 337 340 342 342 342 342 342 342 342 344 345 346 345 345 346
317 319 320 321 321 322 322 322 321 321 318 317 319 321 320 323 325 327 331 340 343 343 344 342 341 341 342 344 346 346 347 346
317 317 318 321 322 322 323 322 322 323 321 318 319 318 318 322 324 327 330 337 339 341 342 342 340 340 341 341 344 346 347 347
315 316 324 322 323 323 323 322 321 321 321 320 321 324 324 326 328 328 330 331 337 337 339 339 340 339 339 342 344 346 347 348
317 318 320 323 325 323 322 322 322 322 321 321 322 323 323 325 327 327 328 328 329 335 337 338 338 338 340 345 345 347 348 348
315 320 323 323 333 333 322 325 330 323 323 323 321 321 323 326 326 327 327 329 330 334 335 336 337 338 342 345 347 346 346 347
318 319 320 330 333 333 328 326 335 329 326 324 323 324 329 327 331 330 330 329 329 333 331 336 341 342 344 346 347 346 346 346
318 322 324 332 335 339 334 337 336 336 335 335 336 337 337 336 335 335 339 338 333 329 331 339 341 340 343 346 343 345 347 348
324 324 331 331 331 335 337 337 339 342 341 343 348 350 349 345 341 339 338 339 340 339 338 335 332 343 344 340 341 346 349 349
328 330 332 332 331 333 333 335 340 341 345 347 347 346 348 351 351 348 344 341 340 337 335 337 342 339 338 343 346 346 346 345
329 329 332 331 329 330 330 334 335 339 341 340 340 336 336 338 341 348 350 350 350 349 349 350 355 355 354 347 346 347 347 347
330 327 328 327 325 325 328 330 331 331 332 333 335 335 336 337 335 334 335 336 335 335 337 337 347 353 352 355 355 352 348 348
327 326 325 324 324 324 327 328 329 331 332 333 334 333 333 333 332 332 334 335 335 333 333 333 333 334 336 337 351 356 353 355

GFSFLT2_850_thetae_024.txt.gz
Theta_e
321 320 321 318 320 316 316 317 317 318 319 323 325 324 332 336 336 337 340 343 345 346 346 345 344 343 345 347 345 346 345 346
322 322 320 317 316 320 312 321 321 319 320 324 324 327 328 333 336 338 338 339 342 343 345 345 344 343 343 344 344 344 345 345
318 321 324 318 318 315 317 314 319 318 320 317 323 324 325 329 334 337 338 338 339 341 342 343 343 344 343 344 344 345 345 345
318 318 320 324 321 315 320 318 313 315 320 319 319 322 324 326 330 334 334 337 339 340 340 341 342 343 343 343 343 344 344 345
316 317 318 318 321 317 320 315 320 319 322 320 318 320 323 324 329 332 334 336 338 339 340 340 341 342 342 342 343 343 344 344
317 317 316 317 318 317 319 322 323 321 322 320 320 320 321 323 326 328 329 330 334 338 339 340 341 341 342 342 343 343 344 344
315 316 317 318 318 318 318 320 321 323 322 321 319 319 321 325 325 329 330 334 336 339 340 339 340 341 341 342 343 343 343 344
315 317 317 318 318 319 320 318 319 321 319 317 319 321 320 322 324 325 329 330 328 335 340 340 340 340 341 341 342 342 342 343
316 315 317 319 319 320 319 318 319 320 320 320 317 317 319 322 324 325 326 327 326 327 335 341 341 341 341 342 342 343 342 343
315 315 319 318 317 319 320 320 319 320 319 320 321 323 325 325 325 326 326 326 326 326 329 337 341 342 341 342 342 341 342 344
314 316 317 316 327 334 333 328 320 320 320 319 322 322 321 324 324 325 327 327 328 328 329 331 338 341 342 342 341 342 342 344
312 317 320 319 331 332 332 331 322 321 321 321 318 320 321 328 326 326 327 326 326 326 327 331 336 338 341 342 342 341 341 341
313 317 317 317 331 334 328 332 336 337 335 322 321 324 326 325 326 325 326 326 327 327 328 330 335 336 337 338 339 339 340 343
312 316 318 328 334 342 334 335 335 337 338 322 325 326 329 332 335 339 338 338 333 330 329 331 336 339 339 338 337 340 343 344
313 314 317 332 332 334 333 332 334 336 341 337 340 343 341 342 343 345 347 347 346 343 341 333 329 339 343 345 345 346 346 347
317 320 320 331 331 331 335 330 332 336 341 342 344 343 343 342 342 343 343 343 343 345 346 347 349 347 340 339 343 344 346 348
316 317 327 329 328 330 335 331 332 334 335 335 338 336 337 337 337 336 336 335 337 339 337 337 337 339 341 344 346 348 347 345
320 319 326 327 326 329 334 331 331 332 335 336 336 335 335 335 335 336 336 337 338 337 337 336 335 335 335 335 335 337 340 345
319 319 324 327 325 327 330 330 331 333 334 335 335 335 335 336 335 335 334 334 334 333 333 333 332 332 332 332 332 332 332 332

GFSFLT2_850_thetae_027.txt.gz
Theta_e
324 324 324 324 327 325 323 322 324 326 327 328 329 330 334 337 337 343 346 348 348 348 347 346 346 346 346 344 344 345 346 346
324 324 324 324 324 324 324 324 324 325 327 328 332 331 331 334 336 337 339 344 346 348 348 347 346 346 345 343 341 341 342 345
325 325 325 323 324 325 325 325 324 324 324 328 332 336 335 333 333 335 337 338 341 344 346 345 346 347 346 345 343 341 341 342
325 326 326 325 326 325 326 328 325 325 325 326 329 331 333 332 332 335 338 339 336 340 344 346 345 345 345 345 345 343 341 342
326 325 322 326 327 325 326 327 328 325 326 327 327 327 327 328 329 329 331 337 337 340 340 340 342 343 343 343 343 343 343 342
328 326 322 324 322 326 326 328 327 328 327 327 328 328 329 329 328 328 327 330 332 334 336 338 339 341 342 341 342 343 343 343
318 318 318 320 321 322 323 326 329 328 329 328 328 329 329 328 329 329 330 328 328 329 332 335 338 339 340 341 341 342 343 343
317 316 318 320 320 321 321 322 323 324 325 326 324 327 328 327 327 328 327 326 327 330 332 334 335 338 339 340 340 341 341 341
316 316 316 320 321 321 322 322 323 325 325 325 325 326 326 327 328 328 327 326 326 327 328 327 329 331 338 340 340 341 341 341
313 314 318 321 321 321 323 324 323 324 324 325 327 327 326 325 326 327 326 326 326 326 326 326 326 331 337 340 340 340 341 341
312 315 317 317 319 330 333 328 331 329 325 325 324 325 328 327 325 324 325 326 326 326 326 326 326 327 335 340 340 340 340 341
312 312 315 320 319 322 333 328 337 339 338 330 325 328 329 326 325 325 325 325 326 326 326 328 329 331 336 339 340 341 341 341
311 312 314 316 321 335 333 330 338 339 339 340 341 328 328 329 325 325 326 326 326 326 325 326 326 328 332 337 339 339 341 342
312 311 311 315 322 322 331 336 337 339 338 337 340 340 330 335 330 330 333 328 326 325 326 327 329 332 333 334 335 337 339 340
314 313 314 316 321 330 335 336 337 337 337 336 340 341 338 338 340 345 347 340 334 329 327 328 330 335 338 339 340 340 341 342
312 311 314 313 315 317 329 334 336 336 335 336 342 342 341 342 347 350 349 349 347 346 344 343 339 335 334 336 337 338 339 340
314 314 314 314 314 316 322 333 334 335 335 337 338 338 338 339 338 337 338 338 338 338 338 338 337 337 337 337 338 340 343 346
313 312 314 317 315 319 327 331 334 333 337 336 336 337 337 338 338 335 335 334 334 334 333 333 332 332 332 332 332 332 332 332
311 311 312 318 320 324 329 332 333 333 334 335 338 337 338 339 340 336 334 333 333 334 334 335 335 335 334 333 333 333 334 333

GFSFLT2_850_thetae_030.txt.gz
Theta_e
326 326 327 328 330 327 327 327 328 328 329 330 332 334 334 334 335 336 343 348 350 350 351 352 353 352 350 346 343 344 344 344
326 326 327 328 328 327 327 329 329 327 329 330 332 333 334 334 335 337 342 347 349 350 350 352 353 354 353 344 339 340 344 345
327 327 327 327 328 328 328 328 329 329 329 331 331 333 333 335 335 336 340 345 347 347 349 350 352 354 355 355 349 342 340 340
328 327 327 327 328 328 328 330 328 330 330 329 329 330 333 333 334 336 338 339 341 344 346 348 350 352 353 354 355 349 343 339
331 329 329 328 328 329 329 330 333 330 328 330 330 331 332 333 333 333 335 338 340 341 342 346 348 350 351 353 353 354 353 347
331 330 329 329 329 329 329 331 330 331 330 330 329 330 330 330 331 332 334 336 337 338 340 343 345 348 350 350 352 352 354 355
329 325 324 329 329 329 330 330 331 331 331 331 330 330 330 330 330 331 332 333 336 341 342 344 345 347 350 350 350 351 352 355
324 323 323 324 326 327 328 330 331 330 331 331 330 329 330 329 329 329 329 329 330 335 340 343 345 347 348 346 348 350 351 350
325 324 323 325 326 326 327 327 328 330 330 330 329 329 329 328 328 328 329 330 332 333 336 341 343 340 344 339 349 350 347 350
321 323 324 325 326 326 326 327 327 328 328 329 328 327 327 327 328 328 328 329 331 331 332 337 340 338 345 347 345 346 346 345
320 321 323 323 323 323 326 327 327 327 328 328 327 327 327 326 327 328 329 330 331 331 332 333 335 338 340 347 349 350 344 342
316 320 322 323 323 322 326 329 329 331 333 334 336 332 330 327 328 328 330 330 330 330 331 332 330 332 341 345 348 346 341 341
314 316 318 320 323 329 328 339 336 335 336 338 342 340 337 336 336 335 334 333 333 333 329 330 328 332 333 343 343 340 352 352
313 314 314 315 317 320 328 330 332 334 334 335 337 338 341 342 342 338 337 342 345 338 330 332 331 326 327 328 334 346 348 349
313 313 314 314 314 317 319 320 323 331 335 336 337 338 341 344 344 336 340 345 348 336 338 344 332 330 331 330 333 344 347 346
313 313 314 314 315 315 315 317 320 321 329 335 337 340 344 345 344 346 349 353 352 348 347 349 339 343 342 338 339 339 340 341
315 315 313 311 311 312 314 315 315 317 326 333 337 341 345 344 345 348 350 348 349 351 351 350 348 348 348 349 354 350 354 357
314 313 314 314 313 313 313 316 317 322 325 331 338 340 341 344 345 345 346 345 345 345 345 345 344 338 336 337 338 345 353 353
314 311 312 313 314 314 317 319 321 325 327 335 337 337 339 341 341 341 343 344 346 347 347 347 346 338 333 332 332 333 337 339

GFSFLT2_850_thetae_033.txt.gz
Theta_e
328 328 330 330 330 329 331 330 330 330 331 332 334 335 336 337 338 339 342 346 348 350 352 352 351 350 350 352 351 344 344 340
329 329 328 331 329 329 330 332 332 332 332 332 334 334 336 337 337 337 339 344 347 349 351 353 353 352 351 351 347 334 336 337
331 329 329 329 331 330 330 330 332 334 333 333 335 335 335 336 336 336 337 341 346 349 350 352 353 354 354 354 355 351 338 338
332 329 330 330 330 331 331 334 330 333 333 332 333 333 335 335 335 335 337 339 345 349 349 350 352 354 355 355 356 354 346 340
336 332 330 330 330 331 331 331 334 332 333 333 333 333 333 334 334 336 337 340 345 347 348 349 350 352 354 356 356 357 357 355
337 334 331 331 330 330 331 333 332 333 333 332 332 334 335 335 334 336 337 339 341 342 343 347 348 351 353 354 355 356 357 358
332 333 332 331 330 330 331 332 333 333 334 334 334 333 333 332 334 334 335 336 337 340 342 343 346 349 352 352 354 355 356 357
332 332 331 330 332 331 331 331 332 332 333 334 333 331 332 332 332 332 332 332 333 333 339 343 343 348 350 353 352 354 355 356
332 331 330 331 331 332 332 332 332 333 333 334 333 333 333 332 332 331 331 331 331 332 334 340 343 346 349 352 354 352 353 356
327 330 333 331 330 330 331 331 332 332 333 333 333 331 331 330 331 331 331 331 331 331 333 335 337 340 348 349 353 353 353 354
325 329 329 329 328 330 330 330 330 331 331 330 329 329 330 329 329 330 330 330 331 331 332 333 335 337 341 348 349 350 351 353
323 326 330 328 328 325 329 330 330 330 330 330 331 334 335 337 338 334 331 331 331 332 333 333 334 335 336 339 346 350 342 350
319 322 324 326 327 327 329 340 333 331 332 334 337 340 340 339 339 342 343 342 340 338 337 336 336 336 338 339 341 343 354 354
318 319 322 321 321 326 329 330 330 333 335 337 338 338 338 338 340 342 344 343 341 341 345 347 339 340 343 343 334 347 350 354
316 317 318 318 319 319 319 321 322 323 325 327 329 335 337 338 342 345 345 343 337 339 348 342 343 344 345 346 350 351 351 353
315 316 316 315 315 316 317 318 318 319 320 320 322 329 335 339 344 346 346 348 351 351 349 345 353 355 353 352 355 354 355 355
315 315 315 314 314 314 315 315 315 316 318 319 321 324 333 340 347 346 349 354 352 354 356 357 359 361 361 361 359 359 359 360
315 315 315 315 315 315 315 314 314 315 317 322 324 328 337 338 345 349 349 350 351 352 352 352 351 352 352 352 362 362 361 361
314 312 313 313 314 315 315 314 315 317 319 322 325 329 339 338 345 346 347 348 351 352 351 351 351 346 337 346 352 352 355 354

GFSFLT2_850_thetae_039.txt.gz
Theta_e
333 330 327 326 325 323 323 325 325 325 324 325 327 330 329 333 340 348 349 350 350 349 348 348 348 347 348 349 349 348 349 348
331 332 330 326 325 324 323 324 325 326 326 327 326 327 330 329 331 346 348 350 352 350 349 348 347 347 348 349 349 349 349 348
326 329 330 325 325 325 323 322 324 329 329 328 327 327 329 330 332 342 347 349 352 351 350 350 348 347 347 349 350 350 349 347
323 326 329 327 325 324 325 324 325 325 327 331 331 329 329 331 333 338 345 346 352 352 351 351 349 348 348 348 348 348 347 347
325 324 325 327 326 325 324 325 326 325 327 333 331 329 330 333 334 334 341 345 352 353 353 352 351 350 349 348 348 347 348 348
328 325 327 328 328 326 326 327 327 327 330 333 334 332 334 334 336 335 340 346 351 353 354 353 352 351 350 350 349 349 349 349
328 329 330 332 328 328 327 327 328 327 331 333 335 336 337 336 338 338 338 345 350 352 353 354 353 352 352 351 351 351 351 351
329 330 332 333 333 329 328 328 327 328 328 332 333 337 336 337 336 335 338 343 347 351 352 354 354 354 354 353 353 353 353 353
329 330 331 333 333 332 329 328 328 329 329 332 334 336 333 335 333 333 333 333 334 338 347 353 354 355 354 354 354 355 354 354
325 328 334 331 331 332 330 330 328 327 334 333 335 339 340 335 332 334 334 333 332 332 334 335 340 353 353 354 355 355 356 356
325 331 331 333 330 330 332 338 334 337 335 333 339 341 342 342 342 343 343 339 336 336 335 333 335 335 349 354 354 355 355 357
322 330 335 328 325 324 329 337 330 333 338 334 340 345 342 340 342 343 343 343 337 332 336 338 340 340 339 348 354 354 354 353
319 323 327 321 323 329 336 334 325 325 326 327 328 330 332 339 342 346 346 346 343 339 338 340 342 340 343 345 347 345 349 353
318 322 328 318 321 324 329 323 322 321 321 324 323 323 325 328 338 345 350 349 350 346 343 339 342 346 343 344 350 345 344 346
316 318 316 316 316 318 318 318 318 318 318 318 319 320 324 328 334 337 345 352 354 354 354 343 338 342 344 345 339 340 347 349
313 314 314 315 316 317 317 318 316 316 317 317 317 319 321 325 327 337 336 345 352 351 355 359 352 346 346 345 343 340 346 343
313 313 313 316 313 315 315 315 316 317 317 317 317 319 322 323 325 337 336 331 346 351 352 354 358 360 353 348 344 342 342 348
311 310 310 311 311 311 311 313 315 316 318 318 318 318 320 322 323 328 336 333 333 348 348 350 354 353 356 359 361 360 359 354
308 308 308 309 310 311 310 312 314 316 316 317 317 318 318 318 319 320 331 333 331 344 348 348 350 350 350 345 349 361 361 360

GFSFLT2_850_thetae_042.txt.gz
Theta_e
327 330 330 330 330 322 319 319 320 322 322 323 324 324 328 341 346 345 346 348 347 348 348 348 347 347 347 347 347 347 347 347
327 327 329 325 323 325 317 323 323 322 322 323 323 323 322 326 343 344 348 348 347 347 348 348 348 347 347 347 347 347 347 347
320 324 329 328 325 322 321 317 321 322 324 323 322 323 323 323 340 346 348 348 348 347 348 348 348 348 347 348 347 347 346 346
322 321 322 331 323 321 323 320 318 320 325 326 324 324 324 325 328 346 348 349 348 347 348 348 348 348 347 347 347 347 345 345
322 320 320 321 327 321 318 318 320 324 325 325 324 327 327 328 326 332 346 349 348 348 348 348 348 348 347 347 347 347 346 347
321 320 320 322 323 325 321 322 322 323 324 325 325 328 326 325 327 331 344 347 349 349 348 348 348 348 348 348 348 347 348 347
310 313 318 323 326 325 322 324 324 324 325 324 324 330 328 330 331 334 344 347 350 350 349 349 349 348 349 349 348 348 348 348
312 321 325 328 330 330 324 324 324 322 324 323 327 333 332 335 337 338 340 347 350 351 350 350 350 349 349 349 349 349 349 349
315 322 329 330 327 331 327 324 324 324 323 327 335 340 338 330 334 336 343 348 351 351 351 350 350 350 350 350 350 350 350 350
314 320 332 326 323 324 329 328 327 333 329 339 341 341 342 344 343 340 337 344 349 351 352 352 352 351 351 350 350 350 350 351
316 326 328 325 322 321 323 325 323 327 338 340 340 340 341 347 347 346 343 340 340 343 348 352 353 353 353 352 352 352 351 351
313 324 331 319 319 323 325 324 320 322 323 330 336 340 336 343 349 351 349 346 340 340 340 339 338 344 350 352 354 353 353 352
316 323 324 318 318 324 327 325 320 319 319 320 324 324 328 339 345 352 353 352 347 339 340 342 343 340 340 347 352 352 353 353
316 323 324 316 317 319 316 317 317 317 317 317 320 322 325 336 338 342 351 350 352 347 340 341 341 344 344 346 354 355 355 354
314 317 314 314 317 316 314 315 315 316 317 317 318 321 323 326 338 337 335 349 352 355 356 349 339 338 345 346 343 342 353 357
308 311 310 312 315 314 312 312 312 315 318 318 318 319 319 323 326 334 333 334 348 351 353 356 356 352 349 348 347 345 342 341
308 308 309 311 312 310 310 311 312 314 316 317 317 319 318 318 320 320 330 331 337 347 348 349 351 354 356 356 356 354 347 340
310 308 309 309 311 311 309 310 311 311 314 316 317 318 318 317 317 318 321 328 328 338 344 345 347 348 347 347 349 352 357 357
312 312 313 312 313 312 311 313 311 311 311 314 317 317 317 317 317 318 323 325 328 333 343 343 346 346 346 345 344 344 348 358

GFSFLT2_850_thetae_045.txt.gz
Theta_e
318 324 328 328 329 325 322 317 322 327 321 320 325 336 343 345 346 346 344 344 346 349 348 348 349 349 349 348 347 346 344 345
319 321 325 329 324 327 318 328 322 320 321 326 322 323 333 344 345 345 345 343 343 347 348 347 348 348 348 348 348 348 347 346
318 320 323 324 328 325 326 320 331 320 322 319 321 322 324 336 342 343 345 344 342 344 347 347 347 348 348 348 348 348 348 347
319 320 318 319 325 318 330 326 316 320 326 322 321 321 320 324 335 337 343 345 344 344 347 347 347 347 347 348 347 347 347 347
320 317 317 318 320 321 321 315 318 328 329 320 321 323 325 324 323 330 339 343 344 346 346 347 347 347 347 347 347 347 347 347
317 314 312 313 313 314 317 319 320 321 324 322 321 321 322 325 330 328 335 341 344 346 346 347 347 347 347 347 347 348 347 347
310 310 311 311 312 313 318 321 322 322 319 321 319 322 327 330 330 325 334 342 345 347 346 347 347 347 347 347 347 347 347 347
312 311 312 313 314 318 320 324 320 320 320 320 335 339 340 339 330 327 341 344 346 347 347 347 347 347 347 347 347 347 347 347
310 312 314 322 322 323 326 322 324 321 323 332 339 341 341 342 340 332 338 345 347 347 347 347 347 348 347 347 348 348 348 348
310 311 329 321 319 320 321 319 319 322 330 340 341 342 341 343 344 340 339 343 345 347 347 347 347 347 347 347 348 348 348 348
311 315 325 322 319 320 320 319 317 319 322 332 341 343 341 341 347 347 341 344 347 348 348 348 348 347 348 348 348 348 349 349
314 320 330 320 317 318 321 319 317 316 318 324 336 341 330 336 342 352 343 344 349 350 350 349 349 349 348 348 348 349 349 349
315 318 322 318 315 318 323 320 315 315 315 318 321 323 329 336 342 352 354 347 342 347 351 351 351 351 350 350 350 349 350 350
317 323 327 313 318 319 314 315 313 313 314 315 321 321 324 330 335 345 353 351 344 342 346 343 344 351 353 353 353 353 353 353
312 317 313 310 316 313 312 311 311 311 312 314 317 318 318 319 326 333 342 350 354 350 348 347 346 344 349 352 353 353 354 355
309 309 309 310 312 312 312 312 311 311 311 312 314 318 317 317 318 324 331 339 348 353 353 353 353 350 348 349 346 344 347 353
309 308 310 312 313 314 314 314 313 314 312 311 313 318 317 317 317 320 324 329 339 345 349 350 349 350 351 350 347 345 343 342
311 310 310 310 313 314 313 313 314 313 314 312 311 316 316 317 317 321 326 325 330 339 343 345 346 346 345 345 346 349 349 345
310 310 313 313 314 315 313 313 313 313 312 313 312 315 317 317 317 317 318 323 328 331 340 343 344 345 344 341 339 343 342 345

GFSFLT2_850_thetae_048.txt.gz
Theta_e
317 318 322 323 324 320 322 318 323 329 323 323 324 328 338 342 344 347 347 347 349 349 348 347 346 347 346 344 344 344 343 343
317 318 320 322 322 325 320 328 323 323 320 332 324 328 331 338 342 344 346 345 346 349 349 348 348 346 348 348 346 344 343 344
317 319 320 320 327 325 324 322 327 323 322 320 323 326 327 329 341 342 344 344 345 347 345 348 349 348 348 347 348 347 346 345
317 317 315 317 319 321 331 327 318 322 327 320 321 321 322 327 330 333 341 344 345 345 346 347 348 348 348 348 348 348 348 347
316 314 312 314 314 311 311 319 330 330 328 324 318 319 321 322 326 331 336 342 344 343 343 346 347 347 347 348 348 348 348 348
313 313 311 312 313 312 312 315 324 326 328 324 322 320 320 322 324 326 326 330 335 343 343 343 345 344 345 347 347 347 348 348
309 310 311 311 312 313 313 313 318 323 320 319 321 320 322 330 332 331 330 329 329 336 342 343 345 345 345 346 347 347 347 347
310 310 311 313 313 314 314 315 316 318 319 321 331 337 341 342 342 341 337 330 328 331 338 343 345 345 344 345 347 347 347 347
310 309 311 317 316 319 319 318 321 321 322 325 339 340 336 336 339 342 339 330 325 333 338 343 345 345 345 345 347 347 347 347
308 311 321 320 319 319 318 318 317 318 321 338 340 338 335 334 335 338 345 336 336 340 341 342 345 345 345 346 346 347 347 347
312 313 315 322 318 318 319 317 316 316 316 323 331 335 338 337 340 339 347 340 342 343 344 345 345 346 346 346 346 347 347 346
314 316 329 320 315 315 318 319 315 313 314 317 334 341 332 326 338 345 348 344 343 344 345 345 346 346 346 346 346 347 347 346
310 315 318 314 311 316 324 319 313 311 312 316 322 322 320 326 340 347 348 346 346 346 346 346 346 346 346 346 347 347 347 347
312 317 325 310 315 318 313 312 311 311 311 312 315 318 318 323 332 344 350 347 346 348 348 348 348 347 347 347 347 347 347 348
312 313 309 309 311 311 313 312 312 312 312 312 314 317 319 323 326 334 343 350 353 352 347 349 349 349 349 348 348 348 349 349
309 309 310 311 311 313 312 312 313 314 313 311 313 316 317 318 328 328 333 342 348 349 349 351 352 352 352 353 353 353 352 353
308 310 311 312 312 312 313 313 313 315 315 313 312 316 317 317 317 321 327 332 341 346 347 347 347 349 351 352 350 347 349 351
311 310 311 311 312 314 313 313 313 314 317 315 313 313 316 317 316 316 317 322 329 339 345 346 345 344 343 342 344 348 348 347
309 308 309 310 311 312 312 313 313 312 314 317 314 313 313 316 316 316 315 315 315 320 336 343 345 344 343 342 338 336 338 341

GFSFLT2_850_thetae_051.txt.gz
Theta_e
319 320 323 325 326 324 323 325 326 325 330 332 332 333 334 338 344 348 349 349 349 348 347 347 345 345 344 343 343 344 344 344
318 319 321 324 325 327 326 326 328 326 327 330 335 334 334 336 340 345 348 349 349 349 348 345 343 342 344 344 342 343 342 343
318 322 323 323 325 327 327 327 327 327 327 329 332 336 335 336 336 340 346 348 349 350 349 348 347 344 342 344 344 342 342 342
316 319 319 319 323 325 330 331 329 329 327 328 332 333 334 334 335 337 342 346 347 348 350 350 348 347 345 343 344 344 343 343
312 317 317 319 318 319 322 325 332 328 327 329 330 330 329 329 331 333 341 344 346 346 348 350 350 348 348 346 346 345 346 346
313 314 313 316 315 316 319 329 331 333 331 329 329 331 331 328 328 326 330 338 344 346 347 347 348 348 348 347 348 348 346 346
308 309 311 311 312 314 317 322 327 331 330 333 332 332 331 327 331 336 334 330 339 344 342 343 346 347 347 348 348 348 347 347
308 308 311 313 313 314 316 318 319 321 324 325 335 337 337 342 342 343 343 344 339 335 343 342 342 345 345 346 346 346 346 346
307 311 313 316 316 316 319 321 322 325 326 328 335 342 339 339 339 340 342 343 346 341 333 334 335 338 343 343 345 346 344 345
308 308 317 319 321 318 321 321 321 322 324 326 338 341 339 331 330 337 340 342 344 346 334 329 335 344 344 347 345 346 344 345
310 317 318 322 319 320 323 321 318 320 322 325 333 341 342 328 329 329 337 343 345 347 333 330 342 344 344 345 345 346 345 345
310 316 326 320 316 315 318 325 314 315 318 323 338 348 333 325 330 339 340 346 346 340 341 341 343 346 344 345 345 344 344 345
310 312 315 311 311 316 326 322 313 313 314 318 324 323 322 329 334 337 342 347 350 345 345 342 344 346 343 345 344 344 345 346
310 312 317 309 312 321 316 314 313 313 313 315 316 318 321 328 333 342 344 345 347 347 346 346 344 344 344 344 345 345 346 346
314 315 310 311 311 312 315 315 315 313 314 313 314 316 318 320 327 332 345 344 347 348 346 346 346 346 346 346 346 346 346 347
310 311 311 310 312 314 313 315 314 314 314 313 313 315 316 317 316 318 335 344 344 347 348 348 346 346 346 346 346 346 346 347
310 309 311 311 311 313 313 314 314 314 314 314 314 313 315 316 316 315 316 327 341 346 345 347 348 351 354 355 353 349 349 349
311 308 310 310 310 310 313 314 314 313 313 314 315 314 313 315 316 316 315 314 314 319 343 344 344 342 342 343 348 353 355 354
307 307 308 308 309 309 310 313 314 313 313 314 315 315 314 313 315 315 315 314 314 313 314 331 344 343 343 340 338 339 342 347

GFSFLT2_850_thetae_054.txt.gz
Theta_e
322 323 326 328 328 327 328 329 329 326 325 328 335 337 338 338 342 347 348 350 351 350 350 349 349 349 349 348 343 342 344 340
322 322 323 326 328 329 328 330 331 329 329 326 334 336 337 338 338 342 346 348 349 351 351 350 349 350 351 350 347 343 345 344
319 322 322 325 327 328 329 329 331 331 330 328 330 332 336 337 337 339 344 347 348 350 351 351 351 350 350 351 351 348 346 347
315 320 323 323 326 327 330 332 330 331 331 329 329 330 332 335 336 337 339 344 347 349 350 351 351 351 350 350 350 350 348 345
313 314 317 321 324 326 327 330 333 333 332 330 330 332 330 332 334 336 338 340 345 348 349 350 351 352 351 351 349 350 350 350
312 314 314 318 321 322 324 329 330 332 333 331 332 331 333 333 333 333 337 340 343 346 347 350 351 352 351 351 350 349 350 350
311 311 310 312 314 317 319 324 328 330 332 334 331 330 331 331 332 334 333 332 337 342 346 348 351 352 352 352 352 350 350 351
310 310 309 309 312 315 317 319 322 326 328 331 331 334 337 334 339 340 339 342 339 339 345 347 350 353 354 353 352 351 351 350
310 309 309 312 313 317 318 319 321 325 327 331 332 335 341 341 341 341 342 344 344 346 343 342 347 351 353 353 352 352 352 351
310 310 309 310 312 317 319 320 321 323 325 329 332 336 343 339 339 339 340 341 344 346 346 348 342 345 351 354 353 353 353 351
310 310 309 313 322 323 323 323 323 325 326 328 330 338 344 337 337 339 340 341 343 345 347 349 350 342 346 351 354 355 353 350
310 310 313 317 314 313 320 328 321 321 325 328 333 339 338 335 337 339 341 344 346 348 350 351 351 342 345 350 352 354 352 349
312 311 313 313 310 309 325 325 316 318 321 326 335 331 329 327 330 334 341 345 349 353 352 349 348 342 345 350 352 352 355 355
312 313 315 310 308 316 316 317 316 316 317 318 321 321 321 321 322 330 342 348 352 353 350 347 347 346 350 352 353 355 355 355
313 314 311 310 309 309 315 316 317 316 316 315 316 317 317 319 320 325 335 346 352 354 354 352 351 351 353 353 355 356 356 356
311 313 311 310 310 309 313 316 317 316 315 316 316 316 316 317 319 322 324 335 346 350 352 355 354 355 356 357 357 357 358 358
309 309 308 310 309 310 313 315 316 315 314 315 315 316 314 316 319 322 321 321 336 344 347 348 348 350 355 358 357 358 359 359
310 306 309 309 309 309 312 314 316 315 315 315 315 316 314 314 320 322 324 322 321 328 339 340 340 341 343 352 357 357 357 356
305 306 307 306 307 308 309 312 313 313 314 315 314 315 315 314 321 324 324 324 324 325 322 328 337 340 338 342 347 353 356 359

GFSFLT2_850_thetae_057.txt.gz
Theta_e
323 323 326 329 330 328 330 331 332 329 327 329 337 340 343 342 345 348 350 350 350 349 348 348 349 349 349 349 351 348 349 342
322 323 325 326 329 329 328 333 334 332 331 328 329 335 339 341 342 347 350 349 350 351 350 349 349 350 350 350 352 351 349 347
320 323 324 325 327 329 330 330 332 334 333 333 331 329 335 338 339 342 346 347 349 351 351 351 351 350 351 351 351 353 351 351
319 321 322 322 323 324 332 334 331 332 333 333 332 331 331 335 337 338 340 344 347 348 350 352 352 352 351 351 352 353 353 353
317 318 318 320 323 325 326 328 333 333 332 333 332 331 330 331 332 336 338 340 345 347 348 352 352 353 352 352 352 352 354 354
316 317 317 319 321 323 326 328 328 331 333 333 333 332 332 332 332 335 337 338 342 346 348 350 352 353 353 352 352 352 352 353
313 314 314 315 318 321 325 327 331 331 331 333 333 333 333 333 333 334 336 338 340 343 347 350 351 353 354 353 352 352 351 352
314 313 313 313 314 315 319 321 324 326 329 330 330 333 334 332 334 335 336 336 336 342 345 348 350 353 355 354 354 353 352 351
315 313 313 313 312 313 314 317 319 323 326 328 330 332 334 335 337 339 340 340 342 343 341 344 347 351 354 356 354 354 353 353
318 314 313 313 313 313 314 315 319 321 323 325 326 329 332 343 342 342 342 343 344 345 345 345 345 348 351 355 356 355 355 355
316 315 314 312 316 321 318 320 321 321 322 322 323 326 330 334 342 343 344 345 345 345 346 347 348 345 346 351 357 356 357 355
314 314 314 313 318 314 318 323 322 326 323 323 325 330 331 337 338 339 342 345 347 348 349 350 351 350 349 347 353 358 357 357
315 315 312 317 315 313 321 323 315 321 324 326 329 332 330 328 330 333 337 344 346 352 353 354 355 353 352 347 350 354 358 359
315 314 314 314 314 314 314 310 310 318 320 322 324 323 323 324 324 327 333 340 350 355 356 355 355 355 354 352 347 354 357 359
313 313 315 313 312 313 311 309 309 318 318 319 320 319 319 320 323 325 330 339 348 354 359 357 352 350 352 350 350 355 356 359
313 313 311 309 310 310 309 308 311 317 317 316 318 319 317 319 323 325 325 331 339 347 352 353 355 356 354 357 356 357 358 359
310 309 307 309 309 307 308 311 315 316 316 316 316 318 317 319 324 325 325 325 327 334 340 346 353 357 357 358 357 359 359 359
310 307 307 308 307 306 308 313 314 314 315 315 316 317 317 322 325 324 324 324 322 325 332 337 344 349 354 356 358 358 359 359
306 305 306 307 306 305 308 311 312 314 314 315 315 317 316 321 323 322 322 323 323 322 323 325 334 344 349 352 357 358 359 360

GFSFLT2_850_thetae_060.txt.gz
Theta_e
324 323 325 328 329 327 328 330 332 331 329 329 331 336 345 347 347 349 346 346 350 350 349 350 349 348 349 350 348 347 339 330
322 324 324 324 327 329 330 332 334 331 335 331 331 333 340 346 344 342 343 344 347 350 349 350 350 350 349 351 351 350 349 341
320 323 323 324 325 326 328 331 332 332 333 335 337 333 337 346 345 342 342 346 349 348 350 349 350 350 350 350 354 353 351 348
319 321 322 323 324 324 329 331 332 332 332 333 334 334 333 334 338 344 345 347 343 341 347 350 350 351 352 351 351 354 354 353
318 319 320 321 322 323 324 325 332 334 332 331 333 336 332 331 330 345 345 343 338 343 349 351 350 351 352 352 352 354 356 355
318 319 318 319 320 320 322 324 325 327 331 334 334 334 334 332 332 333 343 343 346 349 352 353 352 351 352 352 353 353 356 356
314 314 315 316 317 318 320 323 327 326 328 331 334 335 334 335 335 333 333 337 338 342 348 353 354 353 353 353 353 353 353 355
315 316 315 315 316 316 317 320 323 325 329 330 329 332 332 335 336 343 335 337 338 339 342 350 355 354 354 353 354 353 353 354
318 316 316 316 315 315 316 317 320 324 326 327 327 330 333 333 335 341 346 342 344 345 345 350 353 356 356 355 354 354 353 354
318 316 319 318 316 316 315 316 316 317 319 321 322 324 326 328 333 335 345 346 346 346 346 347 343 342 358 357 356 355 355 354
316 316 315 315 316 319 321 317 317 323 323 324 321 321 323 334 337 337 341 341 346 347 347 347 345 347 350 355 357 355 356 355
316 314 314 314 317 316 317 319 321 320 321 322 326 328 328 330 332 333 332 336 342 347 349 351 346 343 349 350 359 358 357 356
316 316 314 316 315 315 317 316 317 317 317 317 324 326 325 327 327 328 330 334 335 339 345 349 355 352 351 347 351 358 358 356
316 315 316 316 315 315 317 315 315 314 315 315 318 321 323 323 324 326 328 331 334 339 349 358 361 360 356 353 347 351 359 359
313 314 315 314 314 313 313 313 313 312 313 315 315 319 321 321 322 325 326 329 331 338 351 357 359 358 362 358 354 350 353 359
311 314 310 310 312 311 310 311 311 312 312 314 316 317 319 320 321 325 326 326 328 336 347 350 352 353 357 360 358 357 351 360
310 309 307 310 308 308 308 308 310 311 314 315 317 317 318 319 322 323 324 323 322 327 335 340 342 350 355 358 362 355 352 361
310 307 306 306 307 306 306 306 309 313 314 316 317 317 318 318 323 323 322 323 322 320 325 332 333 344 354 357 359 363 364 364
305 303 305 305 305 305 305 307 309 310 312 316 315 316 317 317 321 321 321 322 324 321 317 321 327 332 345 353 357 359 361 362

GFSFLT2_850_thetae_063.txt.gz
Theta_e
320 321 322 324 324 322 322 323 324 325 326 325 325 346 349 345 342 341 345 345 350 349 347 346 346 347 346 345 344 344 334 333
318 318 320 319 322 323 321 323 325 326 326 328 328 325 344 344 345 344 350 348 348 348 349 347 346 347 347 346 345 345 344 333
316 318 318 319 320 320 320 322 324 325 325 325 328 329 342 343 346 347 342 342 342 346 350 350 348 348 347 348 347 346 347 344
314 315 316 316 316 319 320 322 323 326 328 327 326 328 333 344 345 348 343 339 346 345 349 350 350 349 348 348 349 347 347 347
314 313 316 316 317 317 318 318 320 323 326 328 329 329 330 334 342 347 344 347 346 346 347 349 348 350 350 349 349 350 349 348
312 313 313 314 314 315 315 316 318 320 322 322 328 328 329 332 340 347 344 345 343 343 337 338 346 349 350 351 350 352 351 351
311 312 313 313 313 314 314 315 317 318 320 324 326 326 329 333 338 340 345 347 344 341 339 341 343 348 351 351 352 352 354 353
315 313 313 314 315 316 315 315 315 316 318 322 323 323 327 329 334 339 338 345 347 344 342 340 348 349 348 351 353 352 353 355
315 315 315 316 315 315 315 314 314 314 315 320 325 322 326 338 339 337 334 335 337 345 348 347 343 341 340 352 353 353 353 354
314 314 316 314 314 317 317 318 317 316 322 321 322 326 328 330 332 333 333 332 332 335 345 345 346 349 343 349 354 354 354 353
314 313 313 313 313 317 316 319 319 320 320 319 322 325 326 325 327 328 329 331 331 329 334 338 347 350 351 347 344 354 356 354
315 314 313 313 316 315 315 316 317 316 317 318 320 324 322 322 323 324 327 330 332 330 333 331 343 350 351 342 344 351 356 357
315 315 313 314 315 314 317 316 316 315 314 315 316 318 319 321 321 322 325 328 331 334 336 339 349 355 346 350 345 350 357 358
315 315 315 312 316 316 314 313 313 314 313 313 314 315 318 319 321 320 326 327 329 334 335 337 347 351 354 355 347 355 349 359
313 314 310 309 310 311 310 310 310 310 310 311 312 313 316 318 319 320 324 325 328 330 336 338 343 348 351 355 356 353 357 352
308 311 308 307 309 308 307 307 308 308 309 310 313 314 316 317 318 319 321 324 323 326 330 334 336 343 345 350 354 358 358 358
308 308 305 308 306 307 306 305 306 307 309 311 313 316 316 317 319 320 322 323 322 323 323 330 332 335 343 349 353 355 358 359
308 305 305 305 305 306 305 305 305 307 308 310 312 314 317 317 318 320 322 321 321 322 323 324 328 330 335 345 352 355 358 357
306 306 305 306 305 305 304 305 305 306 307 308 312 314 316 317 317 320 319 321 322 321 322 319 321 323 330 336 347 353 356 362

GFSFLT2_850_thetae_066.txt.gz
Theta_e
316 315 317 318 322 318 319 319 320 320 322 323 324 337 342 343 344 344 346 347 347 345 344 344 344 344 344 344 343 343 343 335
315 315 314 313 317 319 315 322 323 321 323 323 327 334 343 341 345 346 346 345 348 346 344 345 345 344 344 344 343 343 343 343
313 312 313 312 312 313 314 317 320 321 321 324 330 330 333 341 345 344 345 345 349 348 346 345 345 345 345 344 344 344 344 343
313 313 313 313 312 309 313 317 317 320 322 325 327 328 332 341 342 344 344 346 348 349 348 346 346 346 346 346 345 345 344 344
311 310 309 311 312 310 308 310 316 318 319 322 325 327 336 341 344 344 346 347 347 347 348 348 348 346 346 346 346 346 345 345
310 311 310 310 312 312 308 309 311 315 315 316 320 323 333 339 344 346 344 343 340 338 341 345 346 348 347 347 347 347 347 346
309 311 311 311 312 313 312 312 312 313 314 316 322 330 338 339 339 341 342 344 345 344 344 344 342 344 348 348 348 348 348 348
313 313 313 314 314 314 314 314 314 312 313 320 326 330 333 334 334 335 335 334 340 342 343 343 344 339 341 345 348 349 350 350
313 312 313 313 313 314 314 317 319 314 319 319 321 325 328 327 328 329 332 334 331 332 332 336 344 345 344 345 350 350 350 351
310 311 314 310 310 312 318 318 318 319 318 318 318 321 321 324 324 324 328 328 330 330 328 331 333 345 347 345 344 351 351 351
311 311 311 312 311 314 315 317 315 315 314 316 314 323 321 320 321 321 323 326 328 332 333 334 343 347 348 346 347 345 353 352
312 312 313 311 313 314 313 315 314 314 313 313 315 317 318 314 318 320 321 324 326 329 332 332 337 340 346 346 339 338 347 352
311 312 314 312 312 314 315 312 311 311 311 311 312 314 313 311 312 317 320 321 323 326 329 331 332 341 346 341 346 341 339 342
313 312 313 310 312 314 311 309 309 309 308 308 309 310 310 311 312 315 319 319 322 323 326 328 330 326 331 343 342 340 346 348
309 314 310 308 307 309 307 307 307 307 307 307 308 309 310 313 314 316 316 318 319 322 324 326 329 329 330 334 339 335 336 341
305 308 308 306 306 307 306 306 306 306 306 306 307 309 311 313 315 316 317 317 320 321 323 324 326 330 331 332 338 337 331 335
304 305 305 307 307 305 305 306 306 305 305 305 308 309 311 312 314 316 317 318 320 322 322 322 323 325 330 334 337 340 334 335
303 305 305 305 305 305 304 305 304 305 305 305 307 307 309 311 313 316 316 319 321 321 323 321 321 323 325 328 334 335 339 343
307 307 306 305 306 305 305 305 304 305 304 306 306 308 309 311 313 315 317 319 320 321 320 320 321 321 320 323 329 335 338 339

GFSFLT2_850_thetae_069.txt.gz
Theta_e
315 313 314 317 317 317 315 315 319 318 320 321 327 331 340 343 347 348 348 345 347 345 343 344 343 342 342 342 342 342 342 342
313 313 313 312 313 317 314 320 323 319 321 321 328 329 340 340 345 348 348 346 346 346 344 344 344 344 343 343 342 343 342 342
311 312 313 310 310 308 311 314 318 320 320 325 327 326 328 336 341 344 346 347 345 346 345 345 345 344 344 343 343 343 343 343
312 309 311 309 309 306 309 312 313 316 322 317 318 325 337 341 342 342 343 344 345 345 345 343 344 344 344 344 343 343 343 343
310 309 307 309 309 309 304 306 309 315 316 317 322 337 337 338 340 344 344 346 346 347 345 344 343 345 344 344 344 344 344 343
310 310 308 310 310 309 307 308 310 310 311 321 328 335 334 333 335 338 342 344 343 343 344 345 345 345 346 346 345 344 344 344
310 311 312 313 313 313 313 311 311 311 312 320 321 328 329 328 331 334 335 336 336 339 342 343 343 343 344 346 346 346 346 345
311 312 312 312 312 312 313 313 313 315 314 317 321 325 325 325 326 329 328 330 330 331 335 338 344 344 343 340 345 347 347 347
312 310 310 310 311 311 317 318 318 315 318 317 317 320 320 322 323 324 325 326 331 332 331 338 337 344 345 343 342 344 346 348
309 309 310 308 309 312 317 316 315 315 315 315 315 317 316 318 320 321 323 324 326 329 334 335 338 345 346 346 343 343 348 348
310 309 309 311 311 312 314 316 314 314 313 313 312 317 318 312 311 317 320 321 321 324 328 333 332 339 347 350 346 344 347 351
308 310 313 309 312 312 312 315 312 312 311 311 311 315 318 312 308 310 315 318 318 319 323 327 330 329 329 344 346 342 341 345
308 308 310 311 309 312 314 311 310 310 309 308 308 310 309 309 308 310 314 317 318 319 319 323 326 326 325 325 338 340 341 345
311 310 310 309 309 313 309 309 308 307 307 307 307 307 308 308 309 309 311 314 316 317 317 319 324 324 325 325 325 329 340 341
309 308 309 308 308 306 307 307 306 306 306 306 306 306 306 308 309 310 311 313 315 317 319 321 322 323 324 326 328 327 327 337
304 304 307 306 306 306 306 306 306 305 306 305 305 305 305 306 309 311 311 313 316 318 318 319 322 322 323 323 327 329 330 328
301 303 305 306 306 305 305 305 304 304 304 304 304 304 305 308 308 308 310 314 316 317 319 321 321 321 322 323 324 326 328 329
301 304 305 305 305 306 305 305 305 304 305 305 304 304 305 306 307 307 309 312 316 316 320 319 322 321 321 321 322 323 325 328
306 307 307 307 307 306 306 305 305 305 305 304 304 305 305 305 306 308 310 312 315 316 318 318 319 319 320 320 321 322 324 326

GFSFLT2_850_thetae_072.txt.gz
Theta_e
313 312 313 317 316 314 314 314 317 317 319 319 323 327 331 337 343 344 348 347 348 348 346 346 345 345 344 342 340 340 341 341
312 312 311 311 311 317 314 320 322 319 323 323 320 322 333 339 340 341 346 348 348 348 347 345 345 346 345 343 341 341 341 341
310 309 308 309 309 307 310 312 317 319 324 319 318 327 335 335 338 342 342 347 348 347 347 346 344 344 344 343 341 341 341 341
310 308 308 308 309 305 312 314 310 316 318 323 331 332 331 334 336 341 342 343 347 345 346 344 343 343 343 342 342 341 342 341
311 308 307 309 309 306 303 304 309 318 317 321 326 328 327 331 334 335 340 344 345 345 344 345 342 342 343 343 343 343 342 342
307 309 307 311 312 310 306 309 309 310 311 319 324 326 324 325 329 330 333 335 339 343 343 344 343 343 343 343 343 343 343 343
310 311 311 312 312 312 312 310 311 309 316 319 321 324 323 323 324 326 327 331 333 336 339 343 343 344 344 345 345 345 344 344
311 311 311 311 311 311 311 312 310 312 317 316 319 321 320 320 321 322 324 325 327 333 336 338 342 344 343 342 344 345 346 345
310 309 309 311 310 311 317 317 318 316 317 315 315 318 315 316 317 318 319 320 322 324 330 334 340 342 344 344 342 343 345 346
308 307 307 306 308 310 316 316 315 314 314 313 313 312 312 309 309 310 313 316 317 319 323 327 333 338 345 347 346 344 343 344
309 307 307 311 312 314 315 314 313 313 312 312 312 313 316 316 311 308 309 311 314 317 320 321 326 329 329 344 347 345 344 345
306 310 311 308 311 310 311 312 311 311 310 309 310 313 317 316 311 309 308 308 310 312 315 317 320 325 327 327 337 342 342 342
307 306 308 310 309 311 312 310 309 309 309 308 307 309 310 310 310 309 308 309 309 310 311 314 318 322 325 328 328 328 339 341
306 308 310 309 309 312 308 307 308 307 307 307 306 306 307 308 308 308 308 309 309 309 309 311 315 320 322 324 327 327 328 332
306 306 308 308 308 308 306 306 306 306 305 305 305 305 305 305 306 307 307 307 308 309 311 309 312 318 321 321 323 325 327 329
303 302 305 306 305 306 306 306 305 304 304 304 304 304 305 304 304 306 306 307 308 308 310 312 311 314 318 321 321 322 323 326
301 302 304 305 305 305 305 305 305 305 305 305 304 305 304 304 304 304 305 306 307 307 309 312 315 315 316 320 321 320 320 321
303 305 304 305 305 305 305 305 305 305 304 304 305 304 305 305 305 305 305 305 306 307 308 311 314 315 318 318 320 320 320 320
306 305 306 307 307 307 306 306 305 304 304 305 305 305 305 305 308 309 308 308 310 311 310 311 313 316 316 317 318 319 319 319

GFSFLT2_850_thetae_075.txt.gz
Theta_e
315 315 317 321 326 321 324 321 328 326 326 325 332 338 338 339 341 344 347 346 348 348 345 345 345 344 344 344 343 341 341 341
314 314 315 319 316 325 325 329 329 327 330 329 338 336 336 337 339 341 344 348 348 349 346 346 346 345 344 344 344 344 342 341
315 314 314 317 319 319 323 323 328 329 329 334 334 332 334 335 336 338 344 347 349 348 346 346 347 346 345 344 344 344 343 341
314 312 311 313 314 314 327 326 322 327 327 329 331 329 329 332 333 335 338 342 346 348 346 346 346 345 346 345 345 345 344 342
315 314 313 315 314 312 313 317 323 327 325 327 329 328 326 328 330 331 333 335 339 342 343 344 345 344 344 344 344 344 343 343
317 316 314 316 314 314 315 321 319 319 318 329 329 328 326 326 327 328 329 332 336 340 341 343 342 342 342 342 344 344 345 343
314 314 314 314 314 314 314 315 319 318 321 327 326 326 323 323 324 324 324 326 328 332 337 339 343 343 343 344 343 343 343 343
314 313 313 313 313 313 313 313 314 315 321 322 323 323 321 319 319 318 318 319 321 325 329 334 337 341 343 343 344 345 345 345
315 313 313 312 313 313 315 318 317 317 319 319 319 320 317 314 312 312 313 314 315 318 322 324 328 332 341 344 344 343 344 345
315 312 313 312 313 312 316 318 319 320 319 316 315 314 315 313 314 313 311 310 310 312 315 319 321 326 328 341 345 346 345 342
315 313 312 312 313 315 315 315 317 317 316 315 314 315 316 314 312 312 311 310 309 309 310 311 315 320 325 328 336 342 342 344
315 313 312 313 314 313 314 314 314 315 314 313 313 317 319 312 310 311 311 310 309 309 309 309 310 314 320 324 327 330 339 341
315 315 313 312 312 313 315 316 312 312 312 311 313 312 310 309 309 309 309 309 310 310 309 309 309 310 313 319 322 326 328 333
315 316 315 312 312 315 312 310 309 309 308 308 308 308 308 308 308 308 308 308 308 309 310 309 309 309 311 313 317 321 324 328
315 315 311 310 310 309 308 308 308 307 306 306 306 306 306 307 307 307 307 307 307 308 308 309 308 308 311 316 314 316 320 322
310 310 311 311 309 307 307 307 307 306 306 306 306 306 306 306 307 307 307 307 306 307 308 308 308 308 308 315 316 314 317 320
310 308 307 307 307 307 306 306 306 306 306 305 306 306 306 306 306 306 307 308 308 308 308 308 308 307 308 311 316 316 315 317
314 310 309 307 306 305 306 306 306 306 305 305 305 306 306 305 306 305 306 307 308 307 308 310 310 311 311 313 315 315 316 316
309 305 307 306 306 306 307 306 306 306 306 306 306 306 305 304 304 305 305 305 306 306 306 307 308 312 314 314 314 315 315 316

GFSFLT2_850_thetae_078.txt.gz
Theta_e
319 320 324 331 331 330 332 332 333 333 336 338 338 341 342 340 342 346 348 351 351 349 348 348 349 349 349 350 344 343 343 340
318 319 321 327 330 330 330 333 335 332 336 341 341 340 339 337 339 344 348 351 351 351 349 348 349 349 350 349 346 344 344 345
320 322 324 324 327 328 329 330 333 335 337 338 337 335 336 335 336 340 343 349 350 350 351 349 349 349 349 350 351 350 346 345
322 317 317 320 324 327 330 331 331 332 341 335 335 332 333 333 333 335 336 339 348 349 351 350 350 350 349 349 350 351 351 348
320 319 318 322 321 322 324 328 330 330 338 334 334 334 333 332 331 332 332 333 337 342 344 347 349 350 349 349 349 349 349 349
323 323 322 321 320 320 323 329 330 329 336 335 333 334 333 333 329 327 328 330 331 332 336 341 345 348 349 349 349 348 349 350
319 318 319 319 318 318 322 324 328 328 335 333 332 330 329 329 328 327 326 326 328 329 330 333 338 340 342 344 346 350 349 349
320 317 317 318 318 317 317 319 322 326 330 328 328 326 324 322 322 321 320 321 323 324 326 328 329 331 340 343 343 344 345 348
319 316 315 316 317 317 318 318 319 323 326 324 326 325 322 320 319 318 317 316 317 318 320 322 325 326 328 337 343 346 347 349
319 316 315 318 317 316 318 320 320 323 323 322 321 320 319 320 320 319 318 316 316 315 316 318 320 322 324 327 333 340 344 347
318 316 316 315 315 316 319 320 319 321 320 319 318 319 320 318 317 316 315 315 315 315 315 317 317 318 322 326 330 329 333 339
316 317 317 318 317 316 316 321 318 318 318 318 318 319 324 317 314 314 314 314 314 314 314 316 316 316 318 321 325 329 328 329
318 318 316 317 315 315 315 322 317 317 317 316 317 317 315 314 314 313 313 313 312 313 314 315 315 315 316 319 321 323 325 324
319 319 319 315 315 317 318 316 315 314 314 314 313 313 312 312 312 312 312 312 312 312 312 313 314 314 315 317 319 321 322 317
317 319 317 314 316 314 313 314 313 312 311 310 311 311 311 311 311 311 311 311 311 311 311 312 313 313 314 314 315 316 321 321
315 314 315 314 313 312 311 311 311 310 310 310 310 310 310 310 310 310 311 311 311 312 312 312 312 313 313 314 314 316 319 320
315 313 311 313 312 311 310 309 309 309 309 308 309 309 310 309 310 309 309 310 310 311 310 308 309 310 312 314 316 315 317 319
315 313 312 312 311 310 310 309 309 309 309 308 308 309 308 308 307 307 307 309 309 308 308 308 308 309 310 309 313 316 317 317
313 312 311 311 310 310 309 309 309 308 308 308 308 308 308 307 306 306 306 307 306 305 305 305 305 306 307 307 308 311 313 313

GFSFLT2_850_thetae_084.txt.gz
Theta_e
329 332 333 334 335 336 337 336 335 347 351 349 347 345 345 347 351 351 353 351 351 350 350 347 345 345 346 347 344 342 342 345
331 332 334 334 333 335 336 339 338 350 352 352 350 346 342 343 343 343 344 351 352 350 350 349 348 345 348 347 349 347 349 348
332 332 333 333 333 334 334 335 336 350 353 347 348 344 342 340 340 341 341 346 349 349 350 350 348 348 349 350 348 352 355 355
329 328 330 331 333 333 335 339 336 348 351 342 343 340 339 337 338 341 340 342 344 347 347 348 349 349 348 351 351 353 357 356
329 327 327 327 329 330 332 334 338 342 348 341 341 339 337 335 336 338 338 339 339 343 342 346 347 346 349 349 351 353 355 355
329 327 327 327 328 329 331 332 335 345 346 343 343 340 337 334 333 334 335 336 337 336 340 343 346 347 345 347 350 351 352 349
328 325 327 326 327 327 329 330 343 344 343 343 341 340 337 335 334 333 332 332 332 332 334 339 336 339 345 345 348 348 350 349
324 323 325 326 326 327 327 328 333 337 341 337 336 335 335 333 332 330 329 329 330 330 329 330 336 337 337 343 344 344 345 348
326 323 322 324 324 323 324 326 338 342 338 335 334 332 330 329 328 327 326 325 326 326 326 326 326 327 334 338 339 340 343 345
324 324 324 323 323 322 323 324 332 337 336 332 330 328 328 327 326 326 325 324 323 324 325 323 323 325 326 331 335 334 338 341
323 323 323 322 322 321 322 323 330 335 333 329 327 327 325 325 323 323 322 322 321 321 323 323 322 322 324 326 328 329 330 330
323 322 323 324 322 321 320 323 324 329 330 328 326 329 325 322 321 320 320 320 319 319 320 321 321 321 323 323 325 325 326 328
322 322 323 323 320 319 320 324 323 326 325 324 325 325 323 321 320 319 318 318 318 318 319 319 319 320 321 322 323 322 319 319
320 321 323 321 319 320 325 323 322 323 322 323 322 321 320 319 319 318 318 317 317 317 318 318 319 319 320 321 320 320 321 319
324 327 322 321 322 322 321 321 321 320 319 319 318 317 317 317 317 317 317 317 317 317 319 319 317 316 316 317 316 317 315 318
321 323 322 320 320 320 320 319 318 318 317 315 316 316 316 317 317 317 317 316 315 315 315 315 314 314 313 313 314 314 315 316
318 319 318 318 318 318 317 317 317 315 315 315 315 314 315 316 316 315 315 314 313 313 313 313 312 311 311 311 311 310 310 312
319 318 319 318 318 318 316 315 314 314 313 312 313 315 314 314 313 313 313 312 312 312 312 311 310 310 308 307 307 308 309 309
319 318 318 317 316 316 315 314 313 313 313 313 313 314 313 313 312 310 311 310 310 310 310 309 309 307 306 305 306 306 306 307

GFSFLT2_850_thetae_087.txt.gz
Theta_e
325 327 328 328 331 330 330 333 332 352 350 347 346 346 348 349 347 341 340 343 344 347 349 349 343 343 342 344 338 338 334 334
326 328 329 328 331 330 328 336 336 356 354 357 349 344 344 343 344 344 344 344 345 344 347 350 346 345 342 342 338 339 339 337
326 325 328 331 332 331 328 331 333 353 354 348 344 342 340 341 342 343 345 351 348 347 347 349 348 348 346 345 341 340 340 340
331 331 330 332 331 330 329 331 335 347 352 342 340 338 338 340 341 342 343 347 348 349 349 349 347 349 348 348 347 349 347 344
329 329 327 328 328 328 327 327 331 341 351 340 339 338 338 339 339 340 340 342 344 344 347 346 339 347 348 348 347 348 348 349
331 328 325 326 326 325 326 327 339 347 347 342 340 337 336 336 337 338 337 339 340 342 342 342 344 346 345 347 341 347 349 348
326 327 327 325 325 326 327 339 345 344 345 343 338 335 334 333 334 334 333 333 336 341 342 342 343 345 344 342 345 341 347 351
328 327 323 323 325 326 326 338 340 341 343 338 337 335 335 333 332 332 332 330 328 329 332 336 336 339 341 342 344 342 342 340
326 323 322 325 325 323 326 337 339 342 339 338 336 332 330 329 328 328 327 327 326 325 325 327 328 334 335 336 337 342 340 341
324 323 325 323 320 321 323 338 336 336 335 334 330 328 327 326 325 324 324 325 324 323 322 324 326 327 331 331 331 335 335 337
322 320 323 322 321 321 329 338 335 335 332 329 328 326 325 325 325 323 321 322 323 323 322 322 323 324 326 328 329 329 328 328
323 325 324 323 320 318 321 337 334 329 328 327 326 325 322 322 321 320 320 320 320 321 321 321 321 322 323 323 324 322 322 325
321 323 325 322 319 318 322 328 331 328 327 326 323 325 322 320 320 319 319 318 318 319 319 318 318 319 319 320 320 318 316 314
320 323 326 324 323 326 325 322 324 325 324 322 321 321 320 320 318 318 318 317 318 318 318 318 318 318 319 319 319 317 315 314
326 325 323 322 322 321 320 320 320 322 321 321 321 320 319 318 317 318 318 317 318 318 319 318 318 316 315 315 314 314 313 312
323 324 322 321 320 320 320 318 318 318 317 317 317 317 317 317 317 317 317 316 315 316 315 315 314 312 311 311 311 311 310 310
319 321 320 320 320 319 318 319 317 317 316 316 316 316 317 317 317 316 315 314 313 313 313 313 311 309 308 308 308 307 308 308
320 320 319 320 318 317 317 316 316 315 315 314 314 315 316 316 315 314 313 313 313 312 312 310 310 309 307 305 306 305 305 306
320 318 318 318 317 318 317 315 314 314 313 313 313 315 314 314 313 313 311 311 311 311 310 309 308 307 305 306 304 303 304 305

GFSFLT2_850_thetae_093.txt.gz
Theta_e
322 321 319 321 320 320 328 330 333 343 345 345 347 346 346 347 347 347 345 343 342 344 342 343 345 343 343 343 343 342 340 340
324 322 320 320 320 325 322 336 337 343 349 347 350 348 345 344 344 345 345 345 345 346 345 345 345 344 345 344 344 344 343 339
324 322 321 323 325 322 321 325 333 342 344 345 345 344 345 341 343 344 344 343 344 345 346 346 346 346 346 346 345 345 344 341
323 323 323 321 321 322 324 327 335 339 343 340 341 340 342 341 340 343 343 343 342 343 345 345 346 346 346 346 346 344 342 344
323 322 320 321 321 321 319 321 340 342 341 340 339 339 341 340 343 342 343 346 346 344 343 345 344 344 345 346 345 345 343 341
323 322 320 323 324 321 319 322 331 335 345 341 340 339 339 340 338 341 342 344 347 346 345 344 345 345 345 343 341 344 343 342
320 319 321 323 323 319 320 324 334 339 343 342 338 338 339 339 338 338 339 341 343 344 346 346 345 344 344 342 340 343 339 341
323 323 321 320 319 320 333 340 340 340 342 337 336 337 337 335 334 335 337 339 340 342 342 343 342 342 341 339 339 337 340 340
325 322 320 318 318 318 332 339 339 340 337 333 335 336 334 331 331 331 333 336 338 339 341 340 342 343 343 342 342 340 339 340
324 321 324 319 319 321 340 339 336 335 334 334 334 333 332 330 327 328 328 332 334 334 337 339 338 340 340 340 341 340 340 340
326 324 321 321 319 321 321 339 335 334 332 331 326 327 324 326 326 325 323 324 328 332 332 332 333 334 335 335 336 336 336 336
324 327 328 322 321 322 326 340 334 334 327 325 326 326 321 325 323 322 322 323 325 329 332 331 329 329 329 329 329 330 329 329
323 324 325 322 321 321 325 329 328 328 326 325 323 322 322 323 322 322 322 321 321 322 323 324 324 324 325 324 322 320 321 323
315 319 323 320 321 320 319 322 327 326 325 324 324 321 320 322 322 322 321 320 320 320 319 318 318 317 317 316 316 315 315 314
318 319 319 318 318 321 323 327 326 325 324 324 321 319 318 319 319 319 319 318 318 317 317 317 316 316 315 314 312 311 310 310
317 319 317 319 322 324 323 324 326 325 325 323 322 320 319 318 318 318 318 317 317 317 317 317 316 315 312 310 309 308 308 308
314 317 318 317 318 321 322 322 323 323 323 322 322 320 319 318 318 317 317 317 317 316 315 314 313 311 308 307 306 306 306 307
315 316 315 317 317 317 318 318 321 320 319 319 319 318 318 317 317 317 317 316 316 315 314 311 310 308 306 305 304 305 305 305
316 318 316 317 316 316 316 317 317 317 318 318 318 318 318 317 317 317 317 316 316 315 311 309 308 305 304 303 303 303 303 302

GFSFLT2_850_thetae_096.txt.gz
Theta_e
320 319 318 318 318 319 325 327 338 340 340 342 346 346 347 347 346 345 343 341 343 346 345 344 344 345 345 344 343 343 343 342
323 321 319 319 318 322 320 332 338 334 344 340 350 347 345 346 345 345 343 342 344 345 343 342 342 343 345 344 344 343 344 344
321 321 320 321 321 319 320 326 332 335 337 342 344 346 346 344 344 345 344 342 342 344 342 342 342 344 345 345 344 344 344 345
321 321 320 322 321 319 323 326 328 330 335 340 342 344 342 342 343 343 344 344 343 344 345 344 342 345 346 345 342 345 345 346
321 321 320 321 321 319 316 324 336 334 334 340 341 341 341 340 342 343 343 343 344 345 346 346 344 344 345 346 345 345 345 343
321 322 319 322 322 322 318 322 327 332 339 343 341 340 340 339 339 341 344 343 344 343 343 345 345 342 342 344 345 343 341 344
320 319 320 321 319 318 318 319 328 330 338 339 339 339 340 339 339 340 340 343 345 345 343 343 345 344 344 344 344 343 340 342
323 322 321 319 319 323 323 335 338 336 340 334 337 339 338 336 336 336 338 340 341 342 344 344 344 345 344 345 344 343 342 343
324 320 319 318 319 319 320 335 336 338 335 336 337 337 334 334 335 334 335 338 340 342 342 342 342 343 343 343 342 341 339 339
323 320 322 317 318 320 331 337 334 334 335 336 335 333 333 335 335 334 335 337 339 339 339 341 341 341 341 340 340 341 340 340
322 322 320 320 320 322 322 336 334 334 335 329 329 329 327 328 331 333 334 336 337 337 337 337 338 338 340 340 340 340 340 339
321 326 326 320 320 321 324 333 334 332 329 328 330 330 324 326 327 329 333 333 334 334 334 334 332 333 335 334 334 334 332 332
322 323 322 321 319 320 325 324 330 329 327 328 324 325 323 324 324 325 327 330 332 332 331 329 328 327 328 327 328 328 326 326
314 319 323 318 320 323 319 323 327 326 325 325 324 324 323 323 322 323 324 327 329 326 325 324 322 321 321 319 318 317 316 315
315 316 317 317 318 321 322 325 326 327 325 325 322 322 321 321 321 320 320 321 320 320 319 318 316 315 315 313 312 312 311 311
316 317 317 317 320 322 323 325 325 326 325 324 323 321 322 321 320 320 319 318 318 317 316 316 316 314 313 311 310 309 308 308
314 316 317 317 319 321 324 326 325 324 324 323 323 320 322 323 320 319 318 317 317 317 316 315 313 312 310 308 307 307 307 307
317 315 315 316 316 319 321 323 325 325 325 322 321 320 322 322 318 318 317 317 316 315 314 313 311 309 307 306 305 305 305 305
316 316 316 317 316 316 316 319 320 320 321 322 320 322 322 320 319 317 317 317 316 315 314 312 309 307 305 304 304 304 304 304

GFSFLT2_850_thetae_099.txt.gz
Theta_e
322 323 324 323 326 329 336 336 343 347 344 342 348 348 347 345 348 348 347 345 343 347 346 347 346 344 344 343 342 342 340 342
324 323 321 324 325 326 328 338 341 342 347 343 353 351 350 349 347 347 346 346 346 343 345 346 346 345 345 345 343 343 341 342
325 326 326 325 325 326 327 331 335 338 342 345 349 349 350 350 349 348 346 345 347 344 344 346 343 343 343 344 345 344 343 343
325 323 323 326 326 327 328 331 332 334 337 344 345 347 347 348 347 347 347 346 345 345 345 346 343 342 342 342 344 345 344 345
326 326 324 327 325 325 325 330 334 333 333 340 342 345 345 344 345 346 346 344 344 345 345 345 343 342 343 343 343 344 344 344
325 326 325 328 324 324 325 328 330 334 338 344 344 345 342 344 344 345 345 346 344 343 343 343 342 343 344 345 344 344 343 344
324 324 323 323 322 327 324 328 330 329 340 343 344 342 342 341 342 343 343 344 344 344 345 346 345 344 344 342 343 342 342 343
327 324 324 322 322 327 330 325 326 337 337 339 340 340 340 340 340 341 343 344 343 343 344 344 345 345 344 342 343 343 342 343
327 324 323 325 323 325 330 332 336 340 340 341 340 340 340 339 339 339 340 342 344 344 343 343 344 344 344 345 344 344 342 342
330 325 328 323 323 326 332 339 339 339 338 339 339 339 337 336 336 336 338 339 340 342 343 343 344 344 345 344 344 343 342 341
330 328 325 322 324 324 326 334 337 337 336 336 333 332 330 334 335 335 336 337 340 341 342 341 341 342 343 342 341 340 340 340
329 329 328 324 322 321 324 337 335 334 334 332 332 338 331 328 334 335 336 336 338 337 337 339 338 339 340 339 338 337 337 338
327 328 326 322 321 321 330 329 333 334 331 332 335 332 327 328 332 334 334 334 335 334 334 333 332 333 334 332 332 331 331 330
322 325 325 321 323 326 323 324 330 329 327 325 326 326 324 325 331 332 332 332 330 330 328 325 323 324 325 324 323 321 320 321
323 324 320 320 320 321 322 324 327 327 325 325 324 323 322 325 328 331 331 326 325 325 324 322 319 316 315 314 313 313 313 313
322 320 319 320 320 323 324 324 326 325 325 323 322 321 322 323 324 327 327 324 322 320 318 316 315 314 313 312 311 310 309 309
321 319 318 318 318 321 324 324 325 324 325 324 324 322 322 321 320 320 319 318 317 316 317 316 314 312 311 309 308 308 308 308
324 318 319 318 316 317 322 323 324 325 323 323 325 322 322 323 322 321 318 317 317 317 315 314 313 311 308 307 306 306 306 306
318 315 316 315 315 316 318 319 321 322 323 323 323 323 321 322 320 321 319 318 318 316 314 313 311 308 306 305 305 305 305 305

GFSFLT2_850_thetae_102.txt.gz
Theta_e
326 326 328 331 334 334 336 339 341 343 342 345 345 348 347 346 346 349 347 347 347 348 350 350 350 351 350 350 350 350 349 349
325 325 326 327 328 333 335 339 340 342 343 343 351 350 349 346 347 349 348 346 347 348 349 348 349 351 351 350 351 350 348 349
326 325 326 326 327 327 329 332 334 339 340 347 349 350 351 348 348 349 349 348 347 347 349 350 351 350 348 351 352 351 349 348
327 327 327 328 327 328 328 330 332 335 341 347 349 350 350 350 348 348 347 348 348 345 345 349 350 347 346 346 349 351 350 350
328 328 327 327 328 329 328 329 331 332 333 345 347 350 350 351 352 351 350 349 349 350 348 346 346 345 344 343 343 343 348 350
327 328 328 328 329 329 329 329 329 331 331 346 347 350 350 349 349 350 351 350 350 351 351 350 348 344 343 343 342 343 343 347
326 326 326 328 328 328 329 329 329 329 331 333 344 348 349 348 347 348 348 349 349 349 350 350 349 347 343 343 343 343 343 344
326 327 327 327 327 327 330 330 328 329 331 339 343 345 347 346 346 346 348 348 349 349 350 350 346 345 344 343 344 344 344 343
326 327 328 329 328 327 329 333 333 331 333 342 346 345 345 345 345 346 345 346 348 349 349 349 349 347 347 345 343 342 342 340
326 328 329 328 328 329 329 332 338 339 340 342 344 343 343 343 343 343 341 343 343 344 344 344 344 345 346 345 344 344 344 342
327 327 327 326 327 327 329 334 338 341 340 340 341 339 338 338 339 339 339 341 341 342 344 344 343 343 344 345 345 345 343 343
326 327 329 328 325 324 325 335 333 337 338 338 336 342 339 337 336 335 337 339 341 341 342 341 341 343 343 344 344 342 341 339
324 324 326 327 324 324 330 332 331 334 335 335 337 335 336 334 333 334 336 336 337 338 338 339 339 339 340 339 339 339 339 338
325 325 326 325 327 329 329 327 330 332 331 329 331 333 334 329 331 332 333 331 331 332 331 330 330 331 331 331 330 330 329 329
327 329 325 325 327 328 328 327 330 332 327 329 330 331 330 326 327 327 328 328 327 326 324 323 322 320 319 320 319 318 318 319
326 324 323 323 323 327 329 329 329 329 326 328 328 327 326 323 325 325 324 323 322 322 319 316 315 314 313 312 312 312 312 312
326 323 322 321 322 324 327 329 328 328 327 325 325 323 323 325 322 321 321 319 318 316 316 315 313 312 311 310 310 312 312 313
326 323 324 322 320 322 325 326 327 326 323 322 323 322 321 321 320 319 318 317 317 316 315 314 312 310 308 307 307 310 312 312
323 322 322 320 319 319 321 323 325 325 325 324 321 318 318 317 321 321 320 320 319 317 315 314 313 311 309 306 305 306 310 308

GFSFLT2_850_thetae_105.txt.gz
Theta_e
328 329 332 333 338 338 342 343 347 347 348 348 348 348 348 349 349 346 347 343 347 345 348 346 347 347 349 352 352 351 352 352
327 327 327 331 332 335 337 341 346 343 346 351 349 349 348 348 349 350 348 345 347 347 347 346 349 349 350 350 351 350 349 349
327 327 328 327 329 331 334 335 337 339 343 348 351 349 350 349 348 349 349 348 346 349 349 348 350 350 351 350 350 350 350 349
329 328 326 328 327 328 330 333 333 335 350 347 347 347 348 348 347 350 350 349 347 344 348 353 352 351 352 353 352 349 350 351
330 329 328 327 329 328 328 329 331 332 343 347 348 350 350 349 349 350 351 349 347 346 346 350 354 355 353 352 351 352 352 352
329 330 330 330 328 329 329 331 330 331 336 347 346 350 351 352 351 350 350 349 351 350 349 349 349 347 348 348 347 346 348 348
329 329 329 329 329 328 330 330 331 331 331 333 345 347 351 352 353 354 353 351 350 352 350 349 350 348 348 345 343 341 342 343
330 327 327 328 329 330 329 329 329 329 330 335 345 347 351 350 349 351 351 352 352 353 352 351 352 352 349 349 344 343 343 343
329 325 327 327 328 328 328 328 329 330 330 341 344 346 348 349 348 348 351 350 351 350 350 351 352 352 349 347 344 343 343 343
329 327 330 329 329 330 330 331 332 335 333 342 342 346 347 347 347 347 347 349 348 350 350 350 350 350 350 348 347 344 345 343
330 326 329 328 329 330 330 334 339 339 338 339 345 345 342 344 344 345 342 343 344 344 346 348 349 348 348 348 346 345 345 343
329 331 329 331 329 326 328 330 333 333 339 341 342 345 343 340 339 337 337 340 341 342 343 343 343 345 345 344 345 345 345 344
326 328 329 328 326 324 330 333 331 335 337 337 340 339 341 339 335 333 337 338 340 340 341 342 341 342 343 343 343 343 343 343
327 330 332 327 328 332 332 330 331 334 334 335 333 336 335 332 330 329 334 333 333 335 334 331 333 335 334 335 333 335 337 337
328 331 328 327 328 329 329 329 330 333 332 333 333 329 326 326 326 327 330 329 328 327 326 324 324 326 329 328 328 328 327 327
326 326 326 326 328 330 330 329 330 331 329 330 326 324 322 321 322 324 324 324 322 318 317 317 317 317 313 315 315 317 318 319
326 324 324 324 325 328 330 330 329 329 329 327 325 321 321 321 320 320 318 317 316 316 314 313 312 311 311 312 311 312 315 315
328 325 326 324 323 325 326 328 328 327 326 324 324 323 320 320 319 318 318 317 315 314 313 312 311 309 307 307 308 309 314 315
325 324 325 323 322 322 323 325 327 327 325 321 319 318 319 318 319 318 317 317 317 316 314 315 314 312 309 307 306 308 312 313

GFSFLT2_850_thetae_108.txt.gz
Theta_e
329 330 333 334 336 337 343 342 344 350 347 348 344 346 346 347 345 343 344 341 346 346 346 346 351 349 350 348 346 349 350 348
328 328 329 332 333 335 335 347 349 347 346 355 352 352 353 350 347 346 342 343 348 346 345 345 350 345 345 351 348 348 351 349
328 328 327 327 330 332 333 335 339 351 350 350 347 350 350 352 350 347 343 341 348 348 350 348 346 345 350 353 349 349 346 351
331 329 328 328 328 330 332 336 335 337 347 343 346 347 347 347 350 348 345 347 347 344 351 350 348 349 346 352 349 350 344 349
331 331 329 327 328 328 327 329 334 333 345 341 339 344 348 348 349 352 351 351 348 346 347 348 347 346 352 349 350 349 347 349
330 332 332 331 326 327 330 328 329 330 349 349 349 347 347 349 352 353 352 351 350 348 348 346 342 338 346 339 350 351 344 349
329 330 330 331 331 331 329 330 330 332 334 347 347 347 347 351 352 354 353 351 350 349 349 346 347 343 350 350 354 351 352 352
330 329 329 329 329 331 330 328 330 331 332 342 347 350 350 354 356 355 352 351 352 352 351 350 348 349 348 344 349 350 348 343
328 328 327 329 329 330 331 330 330 330 338 335 344 349 345 351 353 354 354 353 352 353 353 352 351 350 347 348 347 347 345 343
330 329 332 330 331 332 330 330 335 339 339 341 347 338 331 347 349 350 351 351 352 351 352 351 349 349 350 351 350 348 346 343
328 327 329 331 331 331 331 335 337 337 335 333 339 340 344 344 347 345 347 346 347 350 350 350 350 350 349 350 348 346 346 344
332 328 332 333 330 328 327 332 334 336 338 333 338 343 343 342 340 342 342 343 343 343 346 349 349 349 349 348 349 347 346 345
328 330 334 330 328 326 329 335 333 335 337 339 342 337 334 336 332 334 337 339 340 341 342 342 343 343 343 346 347 346 345 345
330 332 334 326 331 331 332 330 331 334 334 336 338 334 332 330 331 331 332 331 333 336 337 338 340 341 342 342 340 342 343 342
329 330 328 329 330 329 328 329 332 333 334 334 330 325 325 325 326 326 326 326 327 329 329 328 328 331 334 331 331 334 334 334
330 326 325 327 328 329 329 331 332 332 330 331 327 323 322 321 320 321 321 320 321 322 321 317 314 317 320 323 324 326 328 328
326 327 326 325 327 328 330 330 330 330 327 325 325 322 321 319 319 317 316 315 314 313 311 311 312 314 315 313 314 314 315 318
328 325 327 326 325 326 330 330 329 328 326 325 323 322 322 320 317 316 315 314 313 312 311 311 310 308 308 310 312 312 316 316
326 325 325 324 323 323 324 330 328 328 326 324 322 321 321 320 319 319 318 318 316 315 315 314 312 309 308 306 309 311 314 315

GFSFLT2_850_thetae_111.txt.gz
Theta_e
326 326 328 333 338 334 343 343 341 349 348 350 345 343 343 342 341 341 345 346 346 345 347 347 347 348 348 347 346 342 340 345
326 327 327 332 331 331 333 348 350 348 346 352 346 347 344 342 339 341 343 346 345 346 347 345 347 348 350 347 347 343 340 344
329 326 326 326 326 328 328 331 342 352 348 344 342 344 344 345 344 342 341 342 341 344 347 348 348 348 348 351 348 346 345 343
329 328 325 325 325 326 328 329 331 336 344 338 340 343 342 340 344 346 344 342 340 341 346 346 345 346 349 349 343 347 342 349
328 328 329 326 325 325 323 321 324 330 341 341 340 336 342 342 344 349 345 343 343 346 346 346 347 346 348 347 347 347 343 346
327 330 330 330 330 328 324 322 323 325 348 342 339 339 338 335 339 350 347 344 344 348 348 348 347 345 342 349 351 349 349 344
327 329 329 328 329 330 329 327 328 335 347 345 342 342 344 340 345 349 347 345 349 348 348 348 347 346 345 342 344 350 347 348
327 328 329 330 330 329 329 330 327 340 345 340 341 343 344 343 351 353 352 351 349 350 348 347 346 345 343 338 341 346 348 349
328 327 328 328 332 331 331 336 340 348 346 343 337 336 339 334 340 345 351 352 350 350 350 348 346 345 342 340 341 344 345 347
328 328 331 331 328 330 336 338 337 340 344 337 335 334 340 344 346 345 345 347 350 350 351 351 351 348 346 345 347 347 346 347
328 327 328 332 330 329 332 337 335 339 334 341 337 333 337 338 340 342 344 345 344 349 349 349 350 350 349 348 347 346 347 347
329 333 332 332 329 327 326 337 335 337 339 340 339 339 341 338 342 342 341 342 343 343 344 345 347 348 348 349 350 348 347 346
330 330 333 328 329 329 329 335 334 334 337 335 333 332 330 333 334 335 336 339 340 341 341 342 345 346 347 347 348 347 346 346
328 330 330 323 329 332 329 329 333 335 336 332 331 331 329 328 330 332 333 335 335 337 339 339 340 342 343 344 344 346 346 345
328 329 326 325 326 322 329 334 333 331 331 331 330 330 329 328 326 329 327 328 329 330 331 333 334 336 337 335 338 340 342 341
328 326 327 321 322 329 332 331 329 330 329 329 327 323 321 325 324 322 322 323 321 321 321 323 325 328 329 329 329 330 331 332
327 324 324 326 330 331 330 329 328 328 327 324 323 322 321 319 318 314 313 312 312 313 315 316 317 315 314 317 320 323 321 324
328 323 326 326 327 329 330 328 327 325 324 322 322 321 320 317 317 316 314 313 313 313 311 309 308 310 312 314 313 313 314 316
327 326 325 324 324 329 329 329 327 326 323 322 321 320 318 318 316 315 315 315 316 316 315 312 309 309 308 309 312 313 314 316

GFSFLT2_850_thetae_114.txt.gz
Theta_e
329 332 341 341 341 337 339 341 344 348 344 345 343 340 340 340 341 341 342 346 345 346 345 345 345 345 345 343 342 341 339 340
327 326 337 334 332 332 331 345 346 349 346 349 346 345 340 339 341 340 341 344 346 346 346 347 346 346 346 345 345 342 341 339
323 323 322 323 324 324 326 335 340 347 345 343 343 344 345 342 340 340 343 343 345 345 346 346 346 347 346 346 347 346 342 340
325 323 325 322 323 321 323 327 327 337 333 338 340 340 343 344 343 339 340 344 345 345 345 346 346 347 347 347 347 347 345 342
325 324 325 327 326 323 318 316 320 323 324 338 336 336 340 341 344 345 340 342 343 345 345 347 346 347 347 348 348 348 346 345
324 325 327 329 327 326 320 319 320 321 329 340 344 343 344 348 341 343 347 343 341 343 345 346 348 347 348 348 347 348 344 345
326 324 328 328 328 328 326 329 325 330 345 343 346 340 338 342 340 346 346 343 342 343 342 346 347 347 346 347 348 348 345 345
325 325 325 329 331 339 339 339 343 345 346 340 341 339 337 341 340 337 340 345 349 345 343 342 345 345 346 347 346 347 343 344
324 325 324 330 334 339 339 342 343 344 341 336 336 341 343 340 338 338 334 337 346 348 347 347 346 346 346 345 343 343 340 342
324 323 329 329 329 335 338 338 338 340 334 333 338 338 340 341 338 335 335 336 341 346 346 347 347 347 346 345 344 339 344 345
324 324 328 331 328 329 333 338 337 339 338 334 337 336 331 335 336 336 338 336 341 345 347 348 345 345 344 345 343 339 343 345
326 330 327 329 327 328 328 335 334 336 335 335 337 337 333 330 332 333 336 338 339 341 344 345 346 348 346 343 341 344 346 345
328 329 330 327 325 326 329 331 334 333 332 333 331 331 330 329 329 331 332 334 336 339 340 340 346 346 337 338 348 347 346 347
326 328 327 323 326 330 327 329 335 333 332 331 330 330 330 332 331 329 330 334 334 336 338 340 342 345 345 346 346 345 336 343
323 325 323 324 323 324 332 333 332 332 332 331 331 327 325 326 327 329 330 329 331 334 334 335 337 339 341 340 340 343 345 345
323 324 324 325 322 330 331 329 328 330 329 328 327 324 322 321 323 324 328 329 326 329 330 331 331 333 334 333 335 337 339 339
321 324 323 324 329 331 328 327 327 327 324 322 323 323 323 322 320 319 320 321 320 321 320 321 321 326 328 328 329 331 331 331
321 324 323 326 329 329 327 326 325 322 322 323 323 323 321 317 313 312 311 311 310 309 310 313 315 317 318 315 316 322 324 324
325 323 325 327 328 327 324 325 322 322 321 322 322 321 317 316 314 313 312 311 311 310 309 308 308 309 311 313 316 316 317 317

GFSFLT2_850_thetae_117.txt.gz
Theta_e
338 338 338 341 340 335 340 340 344 349 346 340 342 340 339 338 340 343 345 343 343 342 344 344 344 343 342 340 340 341 340 340
328 339 338 336 333 338 335 343 345 346 346 346 345 342 339 339 339 341 344 344 344 344 344 344 344 344 344 343 339 338 341 339
323 325 338 323 325 323 327 332 337 344 342 340 340 341 339 339 340 341 342 345 345 345 345 345 345 344 344 344 343 341 341 340
325 322 321 323 322 319 323 326 326 330 325 335 340 340 343 343 340 340 343 344 345 345 345 345 345 344 344 345 345 344 344 342
325 321 322 326 326 323 314 314 318 321 323 342 343 345 346 342 343 341 340 341 341 343 345 346 346 346 346 346 346 345 346 345
329 323 323 328 327 325 318 323 323 320 340 345 340 342 339 343 344 344 343 340 344 344 344 346 346 346 346 345 346 346 346 347
325 324 324 327 336 337 334 334 327 338 345 343 343 338 340 338 341 344 344 342 342 343 345 345 345 345 345 346 347 346 347 347
323 325 327 337 337 337 339 342 342 343 343 335 340 341 340 339 336 333 338 344 342 341 342 344 346 346 346 346 347 347 347 346
323 322 327 329 334 338 338 340 339 337 336 335 338 335 333 336 337 335 340 343 345 345 346 344 345 346 347 348 348 348 348 347
322 322 329 329 329 336 338 337 337 334 335 336 334 331 331 333 335 336 336 337 340 339 343 345 345 345 346 346 347 347 348 347
323 323 327 331 328 329 330 338 334 337 333 335 335 335 330 333 335 338 339 340 339 340 344 344 342 345 345 345 346 345 343 343
322 327 328 328 327 325 327 337 332 335 335 336 335 335 331 331 332 334 335 338 341 341 343 344 343 342 343 340 344 344 343 341
324 325 326 327 325 326 330 327 333 333 331 331 330 330 329 330 331 332 333 335 337 337 340 341 344 346 343 337 336 338 336 341
322 325 325 324 325 328 326 330 335 333 330 328 328 328 328 327 327 330 331 332 333 336 338 341 341 344 341 339 338 341 344 343
320 321 321 323 324 327 328 332 334 332 330 330 328 326 323 324 324 327 328 331 332 335 335 336 338 340 341 340 342 344 342 333
321 322 323 324 322 328 331 331 330 330 330 328 326 325 324 325 324 324 325 327 328 330 332 332 333 334 335 336 338 339 339 340
319 322 323 323 325 330 330 327 328 328 327 323 322 321 323 324 323 321 319 317 318 321 323 324 326 329 329 329 331 333 334 334
321 323 323 324 329 329 326 325 326 321 322 323 323 323 320 317 314 313 313 313 314 315 316 316 316 317 318 321 323 325 326 324
323 323 323 327 327 327 325 323 321 321 320 321 322 320 317 315 314 313 312 311 310 309 309 309 311 313 314 315 316 316 316 317

GFSFLT2_850_thetae_120.txt.gz
Theta_e
336 338 338 339 338 334 337 339 342 343 344 338 340 338 339 342 341 341 344 340 340 342 342 342 342 343 342 341 341 341 340 341
334 338 336 335 334 336 334 344 344 340 345 343 341 341 337 337 339 341 344 342 341 342 342 342 342 344 343 341 340 340 340 341
323 332 336 330 334 324 329 333 338 339 332 340 342 339 339 338 339 339 343 344 341 341 342 341 342 343 343 342 341 340 339 338
325 321 320 323 322 319 327 326 326 327 325 341 343 343 341 341 340 339 342 344 343 341 341 341 342 343 344 343 343 342 340 338
325 323 320 325 325 319 312 314 319 321 324 339 340 339 341 341 341 340 341 344 344 343 342 342 342 343 344 344 343 344 344 342
325 324 321 326 326 322 318 318 318 318 344 343 340 340 339 341 343 341 340 342 345 345 344 344 345 344 344 345 344 344 344 345
324 325 323 326 334 337 338 335 326 336 344 341 340 340 339 336 342 343 342 341 340 341 342 343 345 345 345 345 345 345 345 345
322 324 331 337 335 335 340 341 340 340 340 336 338 337 336 338 335 340 343 343 342 341 341 344 344 345 346 346 346 346 346 345
320 321 328 329 332 337 337 337 336 337 337 338 336 334 332 332 331 334 336 340 345 343 342 342 344 345 346 346 345 346 346 347
322 321 329 327 328 334 336 336 333 335 336 336 332 330 330 331 330 331 333 337 340 342 345 343 344 343 343 344 345 346 346 346
321 321 324 329 329 331 333 337 333 334 334 333 332 332 330 332 331 331 333 335 337 341 343 343 344 342 343 345 345 345 345 345
321 324 330 326 326 326 328 335 333 335 333 333 334 332 330 330 331 331 332 334 336 338 340 341 344 340 340 345 344 342 336 340
321 323 323 323 325 326 333 329 332 330 330 330 329 328 329 329 329 330 330 332 335 336 338 340 343 344 344 342 337 337 337 334
319 324 324 323 325 327 323 328 332 331 328 326 326 328 328 329 328 329 329 332 334 336 337 339 341 341 344 343 336 336 335 336
317 319 318 322 323 325 327 330 333 330 328 326 325 325 326 326 325 326 329 331 331 333 335 337 337 338 339 340 341 342 341 342
321 318 322 323 324 326 330 332 332 329 329 328 325 324 322 323 323 325 327 329 329 329 330 330 332 333 333 334 337 339 339 334
318 319 322 323 323 329 329 328 327 329 327 322 321 322 322 322 323 322 322 323 323 324 325 325 326 327 329 330 332 335 335 334
319 320 321 322 324 328 326 324 326 324 321 322 323 323 323 322 321 319 319 317 317 317 317 318 318 317 320 322 325 327 329 330
321 322 322 323 328 327 322 322 321 320 320 322 323 321 316 312 311 310 310 310 310 309 309 310 312 314 316 316 316 316 317 317

GFSFLT2_850_thetae_123.txt.gz
Theta_e
338 340 339 341 339 337 340 341 342 343 345 344 342 342 343 343 344 343 343 342 342 344 344 342 342 342 342 342 340 339 339 342
339 339 336 340 338 343 341 344 342 340 345 348 349 348 343 343 344 343 343 342 342 341 343 342 342 342 342 343 341 340 340 339
337 341 341 340 341 336 335 338 340 340 339 345 347 346 345 340 342 344 343 343 342 341 340 341 342 342 342 343 342 341 340 341
328 325 323 332 336 338 338 336 336 337 336 342 343 343 343 343 341 340 342 343 341 342 340 340 342 341 342 343 343 341 341 340
330 328 326 330 329 325 323 325 332 331 332 342 342 342 343 344 343 342 340 341 342 342 341 340 341 341 342 342 343 343 342 341
329 330 327 330 334 329 325 328 329 327 338 346 344 343 341 341 343 343 343 342 343 343 343 341 340 341 341 342 343 343 343 343
326 327 326 336 339 341 338 339 330 332 343 345 342 341 339 339 342 343 345 345 345 344 344 343 342 342 342 342 342 344 344 343
325 326 328 335 334 335 342 341 341 342 343 339 339 339 338 335 334 336 340 342 343 343 344 343 344 344 344 344 344 344 344 345
326 325 329 332 332 332 338 340 341 344 342 340 338 335 332 333 332 333 335 338 343 342 342 342 342 342 343 343 344 345 345 345
325 327 329 330 331 335 336 338 336 337 340 337 334 330 330 331 332 334 336 338 339 342 342 343 344 345 342 345 346 346 345 346
326 326 326 330 333 337 336 338 337 337 335 334 333 333 331 330 331 332 334 336 337 340 343 343 343 344 344 344 343 343 345 342
329 330 326 329 328 329 331 337 336 336 336 334 334 340 334 328 328 329 331 334 337 339 340 341 342 342 340 344 344 344 343 343
328 329 328 325 327 328 335 332 335 336 335 336 336 334 328 327 327 327 328 331 335 334 338 340 343 343 343 344 344 340 339 340
328 330 327 326 327 332 330 329 333 332 331 330 328 327 326 326 327 327 329 331 332 334 336 338 340 341 343 342 338 336 335 335
326 326 324 325 326 326 325 331 333 330 328 326 326 325 325 324 325 326 328 330 332 333 334 334 335 337 339 340 340 340 339 341
326 325 322 325 324 326 329 332 331 328 327 326 325 323 323 322 323 325 327 327 327 329 331 331 332 333 334 336 338 339 340 340
327 324 323 325 325 328 330 330 329 327 326 323 323 323 322 322 323 324 323 321 322 324 325 326 327 330 331 331 333 334 334 335
324 325 326 325 325 327 328 326 327 326 321 321 322 322 322 322 320 319 318 318 318 318 318 318 317 320 320 320 323 326 328 329
325 323 322 323 323 327 326 325 326 320 320 323 324 323 322 318 315 311 311 310 310 310 311 312 314 315 315 316 316 316 316 315

GFSFLT2_850_thetae_126.txt.gz
Theta_e
336 335 334 335 338 334 339 340 343 344 343 346 345 346 346 342 345 346 346 344 341 343 345 347 348 348 349 349 349 348 346 345
338 339 338 340 337 336 337 345 346 341 342 344 350 350 346 343 344 346 346 345 342 342 345 347 347 348 349 349 349 348 346 346
339 340 338 342 342 338 340 343 346 344 340 344 350 349 348 344 345 346 346 346 345 343 344 346 347 347 348 349 349 349 347 347
332 330 333 337 339 339 339 342 339 341 340 344 347 347 347 345 343 344 345 344 345 343 346 346 347 347 347 349 349 349 348 348
330 331 331 332 333 333 336 336 339 336 340 345 346 347 347 347 346 344 344 345 346 346 344 343 346 349 349 349 349 350 350 349
331 333 331 333 333 333 333 333 334 334 334 348 347 347 345 347 347 347 346 346 346 346 345 342 348 349 350 350 349 350 350 350
328 329 329 330 332 335 333 335 336 334 336 347 347 343 341 340 341 345 345 348 347 345 346 342 343 347 344 342 349 344 345 350
328 327 329 332 333 333 335 337 337 338 338 344 343 340 338 338 336 337 339 342 345 347 347 347 347 346 347 342 342 343 342 343
328 327 326 329 332 332 332 336 337 337 342 344 344 339 335 336 335 333 337 340 341 342 345 345 346 348 347 349 350 344 346 344
327 327 329 330 333 333 334 335 336 336 341 343 341 335 335 332 333 332 335 336 338 341 342 343 344 344 342 342 346 349 348 345
326 325 324 326 328 333 333 333 335 337 342 339 336 336 334 330 332 332 333 335 336 339 341 342 342 342 343 342 344 346 347 347
326 326 326 329 332 331 334 334 336 339 340 339 338 345 338 330 331 332 333 335 336 338 339 341 342 343 342 343 344 345 345 343
326 327 326 329 330 331 333 334 336 337 337 337 339 338 331 330 330 332 332 334 335 337 338 340 342 342 341 341 344 344 343 343
325 326 325 328 330 332 334 334 333 337 336 338 333 330 329 328 329 329 331 332 334 336 336 338 341 343 343 342 343 339 338 337
324 325 329 328 328 330 330 331 335 335 333 332 330 329 329 326 328 327 330 331 333 334 334 335 337 339 341 341 339 338 336 336
327 324 325 326 328 328 329 332 335 332 331 329 329 328 327 326 326 326 328 328 329 330 332 333 333 334 336 338 339 340 340 339
326 326 327 327 327 328 331 335 334 331 330 329 327 326 325 325 325 325 325 325 327 327 326 327 329 331 331 332 333 335 336 336
323 324 324 326 327 329 333 333 331 330 327 326 326 326 325 325 324 324 323 322 321 320 319 321 322 321 321 322 326 329 330 330
324 327 326 328 328 332 332 330 329 327 325 326 326 326 326 325 324 322 320 319 319 318 319 317 316 316 316 316 317 315 314 313